     2              OBSERVATION DATA    GPS                 RINEX VERSION / TYPE
teqc 2000Feb29 Duncan Agnew 20000707 21:02:42UTC            PGM / RUN BY / DATE
                                                            COMMENT
L2: 1 -> 1; 5 -> 5; 60 -> 9                                 COMMENT
L2: 1 -> 1; 5 -> 5; 60 -> 9                                 COMMENT
L2: 1 -> 1; 5 -> 5; 60 -> 9                                 COMMENT
L2: 1 -> 1; 5 -> 5; 60 -> 9                                 COMMENT
L2: 1 -> 1; 5 -> 5; 60 -> 9                                 COMMENT
Original Marker Name: 6411                                  COMMENT
Campaign Name: USMC MCAGCC                                  COMMENT
4-Character Station Name: LEVN                              COMMENT
6-Character Antenna Code: TRMSST                            COMMENT
Vertical Measurement Point: BGP                             COMMENT
Vertical Offset to Rinex Ref. Point: 0.0597                 COMMENT
Radial Measurement Point: NGP                               COMMENT
Radial Offset to Rinex Ref. Point: 0.2334                   COMMENT
Antenna Height from Field Measurement: 1.5030 m             COMMENT
Additional Antenna Identification Info.:                    COMMENT
Model 14532.00                                              COMMENT
Original XYZ: -2298287.6246 -4738231.8967 3586780.6037      COMMENT
New XYZ position is based on association with SCEC monument COMMENT
E1F2J0I2+0011. Position of that monument is believed to be  COMMENT
valid to within 1 m horizontally; vertical accuracy         COMMENT
should be no worse than 3-times this value.                 COMMENT
                                                            COMMENT
Revised Rinex header created by UCSD GPS archive for        COMMENT
GSAC on 18-Sep-2001 (2001:261) 21:08:27 GMT                 COMMENT
For assistance contact dagnew@ucsd.edu                      COMMENT
or anderson@python.ucsd.edu                                 COMMENT
                                                            COMMENT
LEVAN 2                                                     MARKER NAME
____0001                                                    MARKER NUMBER
-Unknown- 11TH ARTILLERY US MARINE CORPS                    OBSERVER / AGENCY
16411 TRIMBLE MSGR NP 7.57; SP 3.53                         REC # / TYPE / VERS
S/N UNKNOWN TR 4000SST L1/L2 GEO                            ANT # / TYPE
 -2298287.5181 -4738228.3322  3586777.8794                  APPROX POSITION XYZ
        1.4251        0.0000        0.0000                  ANTENNA: DELTA H/E/N
     1     1     0                                          WAVELENGTH FACT L1/2
     6    L1    L2    P1    P2    S1    S2                  # / TYPES OF OBSERV
     0                                                      INTERVAL
  1999     3     2    16    59   15.000000                  TIME OF FIRST OBS
  1999     3     2    17    43   45.000000                  TIME OF LAST OBS
                                                            END OF HEADER
 99  3  2 16 59 15.0000000  0  7G27G13G 2G18G19G31G10
 -11507859.57916  -9852745.59116  21196157.875    21196163.594          17.000
        19.750
 -14151536.79316 -11027177.05816  20725598.516    20725602.395          17.750
        22.250
  -6952584.72716  -5417596.17516  22009125.523    22009132.109          18.000
        18.500
  15843581.66416  12361375.63616  22429546.773    22429553.754          12.750
        12.500
   2014107.08916   1579104.62816  20929344.891    20929350.453          19.250
        17.750
  -2466120.18716  -1903863.23016  22188835.156    22188841.426          15.000
        13.000
   3374751.10313   2634761.48715  24063426.625    24063435.063           5.750
         6.750
 99  3  2 16 59 30.0000000  0  7G27G13G 2G18G19G31G10
 -11514952.620 6  -9858272.657 6  21194808.008    21194813.727          17.000
        19.750
 -14142582.385 6 -11020199.618 6  20727302.516    20727306.391          17.750
        22.250
  -6955900.605 6  -5420179.979 6  22008494.523    22008501.063          18.250
        18.500
  15912130.919 6  12414790.574 6  22442591.227    22442598.152          12.750
        12.500
   2043829.222 6   1602264.704 6  20935000.797    20935006.332          19.250
        17.750
  -2420727.832 6  -1868492.601 6  22197472.773    22197479.090          15.000
        13.000
   3409662.339 3   2661964.960 5  24070070.258    24070078.871           6.000
         7.000
 99  3  2 16 59 45.0000000  0  7G27G13G 2G18G19G31G10
 -11521996.968 6  -9863761.769 6  21193467.492    21193473.211          17.000
        19.750
 -14133482.089 6 -11013108.499 6  20729034.305    20729038.172          17.750
        22.250
  -6959145.264 6  -5422708.287 6  22007877.109    22007883.664          18.250
        18.250
  15980765.795 6  12468272.229 6  22455652.047    22455659.152          12.750
        12.500
   2073641.816 6   1625495.273 6  20940674.039    20940679.543          19.250
        17.750
  -2375186.037 6  -1833005.518 6  22206139.086    22206145.441          15.000
        13.000
   3444689.604 3   2689258.846 5  24076736.000    24076744.172           6.000
         7.250
 99  3  2 17  0  0.0000000  0  7G27G13G 2G18G19G31G10
 -11528993.181 6  -9869213.373 6  21192136.297    21192141.930          17.000
        19.750
 -14124233.074 6 -11005901.493 6  20730794.352    20730798.238          17.750
        22.250
  -6962317.228 6  -5425179.950 6  22007273.602    22007280.117          18.500
        18.250
  16049489.764 6  12521823.306 6  22468729.852    22468736.867          12.500
        12.500
   2103545.785 6   1648797.041 6  20946364.555    20946370.164          19.250
        17.500
  -2329493.897 6  -1797401.280 6  22214834.000    22214840.242          14.750
        13.000
   3479834.960 3   2716644.739 5  24083422.508    24083432.293           5.500
         6.750
 99  3  2 17  0 15.0000000  0  7G27G13G 2G18G19G31G10
 -11535937.922 6  -9874624.870 6  21190814.852    21190820.504          17.000
        20.000
 -14114833.056 6 -10998576.824 6  20732583.180    20732586.984          18.000
        22.250
  -6965415.168 6  -5427593.931 6  22006684.078    22006690.484          18.500
        18.250
  16118304.060 6  12575444.771 6  22481825.000    22481832.246          12.500
        12.500
   2133541.191 6   1672170.054 6  20952072.531    20952078.074          19.250
        17.750
  -2283648.012 6  -1761677.254 6  22223558.156    22223564.516          14.750
        12.750
   3515098.478 3   2744122.742 5  24090134.719    24090142.117           6.000
         6.500
 99  3  2 17  0 30.0000000  4  1
0.000                                                       COMMENT
 99  3  2 17  0 30.0000000  0  7G27G13G 2G18G19G31G10
 -11542825.891 6  -9879992.131 6  21189504.141    21189509.813          17.000
        20.000
 -14105279.913 6 -10991132.837 6  20734401.117    20734404.934          17.750
        22.250
  -6968437.976 6  -5429949.374 6  22006108.859    22006115.363          18.500
        18.250
  16187205.466 6  12629134.110 6  22494936.453    22494943.344          12.250
        12.500
   2163630.607 6   1695616.331 6  20957798.500    20957804.199          19.250
        17.750
  -2237646.385 6  -1725831.865 6  22232312.008    22232318.320          14.750
        12.750
   3550481.636 3   2771693.962 5  24096868.016    24096875.578           5.750
         6.750
 99  3  2 17  0 45.0000000  0  7G27G13G 2G18G19G31G10
 -11549656.792 6  -9885314.924 6  21188204.289    21188209.953          17.500
        20.000
 -14095572.541 6 -10983568.674 6  20736248.344    20736252.277          17.750
        22.250
  -6971387.256 6  -5432247.514 6  22005547.633    22005554.203          18.750
        18.250
  16256191.708 6  12682889.555 6  22508064.070    22508071.406          12.250
        12.500
   2193814.264 6   1719136.037 6  20963542.164    20963547.844          19.250
        17.750
  -2191491.146 6  -1689866.778 6  22241095.141    22241101.508          14.750
        12.750
   3585979.524 3   2799354.561 5  24103622.047    24103631.594           5.500
         6.750
 99  3  2 17  1  0.0000000  0  7G27G13G 2G18G19G31G10
 -11556427.487 6  -9890590.801 6  21186915.977    21186921.719          17.250
        20.000
 -14085704.985 6 -10975879.687 6  20738126.141    20738129.914          17.750
        22.250
  -6974258.420 6  -5434484.781 6  22005001.289    22005007.746          18.750
        18.000
  16325264.549 6  12736712.491 6  22521208.227    22521215.336          12.000
        12.500
   2224095.716 6   1742731.949 6  20969304.680    20969310.367          19.500
        17.750
  -2145177.669 6  -1653778.389 6  22249908.398    22249914.953          14.500
        12.750
   3621594.317 3   2827106.264 5  24110400.617    24110407.621           6.000
         6.500
 99  3  2 17  1 15.0000000  4  1
1.503                                                       COMMENT
 99  3  2 17  1 15.0000000  0  7G27G13G 2G18G19G31G10
 -11563133.297 6  -9895816.117 6  21185639.672    21185645.383          17.500
        20.000
 -14075672.381 6 -10968062.093 6  20740035.438    20740039.047          18.000
        22.250
  -6977044.827 6  -5436656.010 6  22004471.094    22004477.496          18.750
        18.000
  16394427.990 5  12790606.022 6  22534369.773    22534376.883          11.750
        12.500
   2254475.929 6   1766404.822 6  20975085.859    20975091.430          19.250
        17.750
  -2098701.612 6  -1617563.302 6  22258752.242    22258758.645          14.500
        12.500
   3657329.519 3   2854951.816 5  24117199.375    24117208.598           5.000
         6.750
 99  3  2 17  1 30.0000000  0  7G27G13G 2G18G19G31G10
 -11569769.243 6  -9900986.990 6  21184377.219    21184382.723          17.750
        20.500
 -14065472.446 6 -10960114.106 6  20741976.313    20741980.090          17.750
        22.250
  -6979743.530 6  -5438758.899 6  22003957.531    22003963.957          18.750
        17.750
  16463681.682 6  12844569.874 6  22547548.203    22547555.301          12.000
        12.250
   2284953.240 6   1790153.347 6  20980885.477    20980891.207          19.250
        18.000
  -2052064.024 6  -1581222.357 6  22267627.148    22267633.574          14.250
        12.250
   3693184.802 3   2882890.898 5  24124023.305    24124032.266           5.500
         7.250
 99  3  2 17  1 45.0000000  0  7G27G13G 2G18G19G31G10
 -11576339.607 6  -9906106.762 6  21183126.930    21183132.500          17.750
        20.500
 -14055112.971 6 -10952041.805 6  20743947.641    20743951.465          17.750
        22.250
  -6982364.739 6  -5440801.396 6  22003458.727    22003465.090          18.750
        17.750
  16533017.044 5  12898597.366 6  22560742.297    22560749.672          11.750
        12.250
   2315516.236 6   1813968.646 6  20986701.398    20986707.066          19.250
        18.000
  -2005274.149 6  -1544762.746 6  22276531.086    22276537.531          14.250
        12.500
   3729153.088 3   2910918.068 5  24130868.227    24130876.105           5.750
         7.250
 99  3  2 17  2  0.0000000  0  7G27G13G 2G18G19G31G10
 -11582832.263 6  -9911165.987 6  21181891.445    21181897.109          17.750
        20.500
 -14044579.583 6 -10943833.991 6  20745952.094    20745955.930          17.750
        22.500
  -6984896.873 6  -5442774.490 6  22002976.867    22002983.313          18.750
        17.500
  16602445.845 6  12952697.660 6  22573954.617    22573961.387          12.000
        12.000
   2346173.987 6   1837857.773 6  20992535.477    20992541.180          19.250
        18.000
  -1958322.430 6  -1508177.026 6  22285465.859    22285472.129          14.000
        12.250
   3765249.511 3   2939045.060 5  24137735.938    24137745.359           5.500
         6.750
 99  3  2 17  2 15.0000000  0  7G27G13G 2G18G19G31G10
 -11589248.242 6  -9916165.463 6  21180670.508    21180676.152          17.750
        20.500
 -14033872.173 6 -10935490.568 6  20747989.633    20747993.457          17.500
        22.250
  -6987335.901 6  -5444675.032 6  22002512.805    22002519.207          19.000
        17.750
  16671967.930 5  13006870.640 6  22587183.953    22587191.383          11.750
        12.250
   2376924.153 6   1861818.918 6  20998386.961    20998392.660          19.250
        18.000
  -1911210.733 6  -1471466.642 6  22294430.695    22294437.070          14.250
        12.250
   3801476.829 3   2967274.050 5  24144630.898    24144639.633           5.750
         7.500
 99  3  2 17  2 30.0000000  0  7G27G13G 2G18G19G31G10
 -11595588.955 6  -9921106.291 6  21179463.680    21179469.418          17.750
        20.500
 -14022992.132 6 -10927012.639 6  20750060.078    20750063.848          17.500
        22.250
  -6989684.099 6  -5446504.803 6  22002065.883    22002072.324          19.250
        18.000
  16741578.315 5  13061112.424 6  22600430.406    22600437.629          11.750
        12.000
   2407764.863 6   1885850.620 6  21004255.703    21004261.648          19.000
        18.000
  -1863941.047 6  -1434633.155 6  22303426.102    22303432.453          14.250
        12.000
   3837832.447 3   2995603.036 5  24151548.211    24151557.750           5.250
         7.500
 99  3  2 17  2 45.0000000  0  7G27G13G 2G18G19G31G10
 -11601857.720 6  -9925991.053 6  21178270.813    21178276.539          17.500
        20.250
 -14011940.329 6 -10918400.860 6  20752163.156    20752167.008          17.750
        22.000
  -6991943.343 6  -5448265.258 6  22001636.023    22001642.453          19.250
        18.000
  16811276.812 5  13115422.873 6  22613693.820    22613701.164          11.750
        12.000
   2438694.356 6   1909951.492 6  21010141.539    21010147.234          18.750
        18.000
  -1816519.129 6  -1397681.040 6  22312450.172    22312456.508          14.250
        12.250
   3874316.998 3   3024032.438 5  24158491.703    24158500.449           5.500
         7.250
 99  3  2 17  3  0.0000000  0  7G27G13G 2G18G19G31G10
 -11608057.114 6  -9930821.759 6  21177091.297    21177097.039          17.750
        21.000
 -14000717.347 6 -10909655.698 6  20754298.852    20754302.641          17.500
        22.250
  -6994113.387 6  -5449956.198 6  22001223.086    22001229.539          19.500
        18.000
  16881063.260 5  13169801.855 5  22626973.727    22626980.969          11.250
        11.750
   2469711.286 6   1934120.504 6  21016043.852    21016049.648          18.750
        17.750
  -1768946.376 6  -1360611.391 6  22321502.813    22321509.148          14.000
        12.000
   3910930.370 3   3052562.270 5  24165459.836    24165467.805           6.000
         7.500
 99  3  2 17  3 15.0000000  0  7G27G13G 2G18G19G31G10
 -11614184.737 6  -9935596.547 6  21175925.180    21175930.977          17.750
        20.500
 -13989323.826 6 -10900777.647 6  20756466.922    20756470.797          17.500
        22.250
  -6996194.321 6  -5451577.705 6  22000827.078    22000833.594          19.500
        17.750
  16950937.866 5  13224249.524 5  22640270.336    22640277.680          11.250
        11.750
   2500815.286 6   1958357.366 6  21021962.672    21021968.301          19.000
        17.750
  -1721221.817 6  -1323423.459 6  22330584.656    22330590.895          14.000
        12.000
   3947676.224 3   3081195.303 5  24172451.156    24172460.980           5.750
         8.000
 99  3  2 17  3 30.0000000  0  7G27G13G 2G18G19G31G10
 -11620238.062 6  -9940313.433 6  21174773.125    21174778.934          17.750
        20.500
 -13977761.490 6 -10891768.052 6  20758667.242    20758671.027          17.500
        22.250
  -6998185.909 6  -5453129.597 6  22000448.172    22000454.570          19.500
        18.000
  17020903.114 5  13278767.828 5  22653584.352    22653591.680          11.250
        11.750
   2532011.100 6   1982665.764 6  21027899.133    21027904.816          19.000
        17.750
  -1673346.438 6  -1286118.003 5  22339695.156    22339701.578          14.250
        11.750
   3984555.620 4   3109932.407 5  24179470.430    24179478.328           6.500
         7.500
 99  3  2 17  3 45.0000000  0  7G27G13G 2G18G19G31G10
 -11626221.896 6  -9944976.170 6  21173634.625    21173640.352          17.750
        21.000
 -13966035.671 6 -10882631.068 6  20760898.500    20760902.484          17.500
        22.250
  -7000092.537 6  -5454615.283 6  22000085.422    22000091.863          19.500
        18.000
  17090954.097 5  13333352.944 6  22666914.547    22666922.055          11.250
        12.000
   2563300.479 6   2007047.081 6  21033853.289    21033858.926          18.750
        17.750
  -1625323.102 6  -1248697.250 5  22348833.531    22348839.934          14.000
        11.750
   4021565.745 4   3138771.403 5  24186513.375    24186521.824           6.750
         8.000
 99  3  2 17  4  0.0000000  0  7G27G13G 2G18G19G31G10
 -11632147.500 6  -9949593.543 6  21172507.094    21172512.785          18.000
        20.750
 -13954153.786 6 -10873372.476 6  20763159.625    20763163.477          17.250
        22.250
  -7001921.491 6  -5456040.444 6  21999737.258    21999743.730          19.500
        18.000
  17161082.355 5  13387998.271 5  22680259.617    22680267.039          11.250
        11.750
   2594677.215 6   2031496.457 6  21039824.016    21039829.695          18.750
        17.750
  -1577156.608 6  -1211164.950 5  22357999.523    22358005.641          14.000
        11.750
   4058700.535 4   3167707.493 5  24193579.992    24193589.324           6.500
         8.750
 99  3  2 17  4 15.0000000  0  7G27G13G 2G18G19G31G10
 -11638007.894 6  -9954160.090 6  21171391.930    21171397.594          18.000
        20.750
 -13942105.877 6 -10863984.517 6  20765452.281    20765456.109          17.000
        22.250
  -7003661.417 6  -5457396.231 6  21999406.164    21999412.590          19.750
        18.000
  17231298.354 5  13442711.963 5  22693621.242    22693628.773          11.250
        11.750
   2626152.673 6   2056022.764 6  21045813.742    21045819.516          18.750
        17.750
  -1528836.299 6  -1173512.800 5  22367194.461    22367200.770          14.250
        11.750
   4095969.679 4   3196748.298 5  24200672.531    24200680.113           7.250
         7.750
 99  3  2 17  4 30.0000000  0  7G27G13G 2G18G19G31G10
 -11643803.893 6  -9958676.464 6  21170288.875    21170294.645          18.000
        20.750
 -13929896.040 6 -10854470.381 6  20767775.758    20767779.652          17.000
        22.250
  -7005313.101 6  -5458683.260 6  21999091.883    21999098.410          19.500
        17.750
  17301601.453 5  13497493.513 5  22706999.656    22707006.984          11.250
        11.750
   2657728.383 6   2080627.186 6  21051822.383    21051828.191          18.750
        17.750
  -1480361.055 6  -1135739.911 5  22376419.000    22376425.219          14.000
        11.750
   4133369.199 4   3225890.725 5  24207788.734    24207797.613           6.750
         7.750
 99  3  2 17  4 45.0000000  0  7G27G13G 2G18G19G31G10
 -11649529.564 6  -9963138.036 6  21169199.422    21169205.082          18.000
        20.500
 -13917520.479 6 -10844827.104 6  20770130.734    20770134.668          16.750
        22.250
  -7006872.292 6  -5459898.217 6  21998795.125    21998801.520          19.750
        17.750
  17371993.902 5  13552344.708 5  22720394.891    22720402.316          11.250
        11.750
   2689410.664 6   2105314.649 6  21057851.328    21057857.141          18.500
        17.750
  -1431726.953 6  -1097843.243 5  22385673.789    22385680.113          14.000
        11.750
   4170900.077 4   3255135.461 5  24214931.125    24214940.082           6.500
         8.250
 99  3  2 17  5  0.0000000  0  7G27G13G 2G18G19G31G10
 -11655187.747 6  -9967547.021 6  21168122.711    21168128.434          18.000
        20.750
 -13904983.583 6 -10835058.111 6  20772516.430    20772520.301          16.750
        22.250
  -7008341.947 6  -5461043.405 6  21998515.500    21998522.063          19.750
        17.750
  17442472.455 5  13607262.983 5  22733806.273    22733814.078          11.250
        11.750
   2721197.080 6   2130083.256 6  21063900.164    21063906.004          18.500
        17.500
  -1382936.331 6  -1059824.614 5  22394958.531    22394964.836          14.250
        11.500
   4208557.247 4   3284478.626 5  24222096.984    24222105.645           6.750
         7.750
 99  3  2 17  5 15.0000000  0  7G27G13G 2G18G19G31G10
 -11660777.803 6  -9971902.919 6  21167059.047    21167064.684          18.000
        20.500
 -13892286.870 6 -10825164.592 6  20774932.563    20774936.438          16.750
        22.250
  -7009721.621 6  -5462118.473 6  21998252.930    21998259.465          19.750
        17.750
  17513034.292 5  13662246.166 5  22747234.500    22747241.867          11.500
        11.750
   2753087.432 6   2154932.859 6  21069968.633    21069974.438          18.500
        17.500
  -1333988.201 6  -1021683.248 5  22404273.125    22404279.230          14.250
        11.500
   4246339.208 4   3313919.033 5  24229286.016    24229294.637           6.250
         7.250
 99  3  2 17  5 30.0000000  0  7G27G13G 2G18G19G31G10
 -11666289.823 6  -9976198.016 6  21166010.219    21166015.813          18.000
        20.500
 -13879419.106 6 -10815137.784 6  20777381.125    20777385.078          16.750
        22.250
  -7011005.213 6  -5463118.682 6  21998008.563    21998015.012          19.750
        17.750
  17583688.909 5  13717301.624 5  22760679.477    22760687.004          11.500
        11.750
   2785091.387 6   2179870.983 6  21076058.828    21076064.570          18.500
        17.500
  -1284872.151 6   -983411.029 5  22413619.586    22413625.754          14.250
        11.500
   4284258.964 4   3343466.822 5  24236502.141    24236510.832           6.250
         7.500
 99  3  2 17  5 45.0000000  0  7G27G13G 2G18G19G31G10
 -11671740.555 6  -9980445.345 6  21164972.781    21164978.422          18.000
        20.500
 -13866393.466 6 -10804987.955 6  20779859.914    20779863.824          16.500
        22.500
  -7012207.291 6  -5464055.365 6  21997779.961    21997786.398          19.750
        17.750
  17654419.063 5  13772415.961 5  22774138.750    22774146.602          11.500
        11.750
   2817195.491 6   2204887.141 6  21082167.984    21082173.723          18.500
        17.500
  -1235601.460 6   -945018.321 5  22422995.516    22423001.633          14.250
        11.500
   4322301.580 3   3373110.306 5  24243741.516    24243750.840           6.000
         7.750
 99  3  2 17  6  0.0000000  0  7G27G13G 2G18G19G31G10
 -11677129.322 6  -9984644.393 6  21163947.266    21163952.938          18.000
        20.500
 -13853203.222 6 -10794709.861 6  20782369.977    20782373.855          16.500
        22.750
  -7013325.241 6  -5464926.497 6  21997567.188    21997573.703          19.750
        17.750
  17725225.592 5  13827589.799 5  22787613.117    22787620.590          11.500
        11.750
   2849397.897 6   2229979.898 6  21088296.000    21088301.863          18.500
        17.750
  -1186172.438 6   -906502.230 5  22432401.648    22432407.738          14.250
        11.500
   4360467.285 3   3402849.723 5  24251004.484    24251012.055           6.000
         6.750
 99  3  2 17  6 15.0000000  0  7G27G13G 2G18G19G31G10
 -11682446.731 6  -9988787.845 6  21162935.453    21162941.051          18.000
        20.500
 -13839839.427 6 -10784296.541 6  20784912.961    20784917.020          16.500
        22.500
  -7014349.848 6  -5465724.889 6  21997372.313    21997378.719          19.750
        17.500
  17796118.536 5  13882830.984 5  22801103.469    22801110.988          11.500
        11.500
   2881705.984 6   2255155.004 6  21094443.867    21094449.613          18.500
        17.750
  -1136577.345 6   -867856.736 5  22441839.242    22441845.359          14.250
        11.250
   4398763.022 4   3432690.498 5  24258292.070    24258299.445           6.250
         6.750
 99  3  2 17  6 30.0000000  0  7G27G13G 2G18G19G31G10
 -11687700.568 6  -9992881.758 6  21161935.695    21161941.434          18.000
        20.500
 -13826313.925 6 -10773757.213 6  20787486.781    20787490.879          16.500
        22.750
  -7015288.495 6  -5466456.301 6  21997193.695    21997200.066          19.500
        17.750
  17867087.947 5  13938131.746 5  22814608.492    22814616.180          11.500
        11.750
   2914109.288 6   2280404.303 6  21100610.117    21100616.008          18.500
        17.750
  -1086828.431 6   -829091.383 5  22451306.219    22451312.414          14.250
        11.500
   4437177.625 4   3462623.858 5  24265601.734    24265610.781           6.250
         7.750
 99  3  2 17  6 45.0000000  0  7G27G13G 2G18G19G31G10
 -11692880.867 6  -9996918.363 6  21160950.102    21160955.691          18.250
        20.250
 -13812618.171 6 -10763085.216 6  20790093.070    20790097.043          16.500
        22.750
  -7016135.190 6  -5467116.069 6  21997032.445    21997038.832          19.500
        17.500
  17938141.493 5  13993498.056 5  22828129.867    22828137.324          11.750
        11.500
   2946615.989 6   2305734.175 6  21106795.992    21106801.801          18.500
        17.750
  -1036916.528 6   -790199.027 5  22460804.352    22460810.301          14.250
        11.250
   4475718.254 4   3492655.419 5  24272937.188    24272944.230           6.750
         7.500
 99  3  2 17  7  0.0000000  0  7G27G13G 2G18G19G31G10
 -11697993.221 6 -10000902.031 6  21159977.195    21159982.738          18.000
        20.500
 -13798753.648 6 -10752281.706 6  20792731.305    20792735.434          16.500
        22.750
  -7016898.946 6  -5467711.206 6  21996887.172    21996893.578          19.500
        17.500
  18009273.162 5  14048925.266 5  22841665.672    22841673.254          11.500
        11.250
   2979217.939 6   2331138.266 6  21113000.000    21113005.766          18.500
        17.750
   -986846.652 6   -751183.568 5  22470332.203    22470338.375          14.250
        11.250
   4514380.324 4   3522781.648 5  24280294.008    24280301.305           6.750
         7.000
 99  3  2 17  7 15.0000000  0  7G27G13G 2G18G19G31G10
 -11703040.099 6 -10004834.670 6  21159016.797    21159022.461          18.000
        20.250
 -13784719.886 6 -10741346.335 6  20795401.906    20795406.020          16.500
        23.000
  -7017582.222 6  -5468243.634 6  21996757.086    21996763.512          19.500
        17.500
  18080484.709 5  14104414.698 5  22855216.813    22855224.637          11.500
        11.250
   3011912.634 6   2356614.628 6  21119221.594    21119227.465          18.500
        17.750
   -936618.327 6   -712044.649 5  22479890.445    22479896.438          14.250
        11.250
   4553163.442 3   3553002.180 5  24287673.297    24287682.219           6.000
         7.500
 99  3  2 17  7 30.0000000  0  7G27G13G 2G18G19G31G10
 -11708016.974 6 -10008712.765 6  21158069.875    21158075.430          18.250
        20.250
 -13770514.376 6 -10730277.125 6  20798105.195    20798109.238          16.500
        23.000
  -7018186.189 6  -5468714.255 6  21996642.148    21996648.559          19.250
        17.500
  18151778.477 5  14159968.215 5  22868783.953    22868791.332          11.750
        11.250
   3044700.547 6   2382163.626 6  21125460.906    21125466.859          18.500
        17.750
   -886229.442 6   -672780.620 5  22489479.031    22489485.172          14.250
        11.250
   4592068.213 4   3583317.484 5  24295077.383    24295086.387           6.750
         8.250
 99  3  2 17  7 45.0000000  0  7G27G13G 2G18G19G31G10
 -11712924.710 6 -10012536.983 6  21157135.828    21157141.395          18.250
        20.250
 -13756137.185 6 -10719074.142 6  20800841.109    20800845.211          16.500
        23.000
  -7018711.139 6  -5469123.308 6  21996542.273    21996548.742          19.250
        17.500
  18223155.585 5  14215586.661 5  22882366.336    22882374.098          11.500
        11.250
   3077582.186 6   2407785.653 6  21131718.203    21131724.063          18.500
        17.750
   -835681.340 6   -633392.525 5  22499098.000    22499104.254          14.250
        11.250
   4631091.263 4   3613724.969 5  24302503.664    24302511.676           6.500
         8.000
 99  3  2 17  8  0.0000000  0  7G27G13G 2G18G19G31G10
 -11717757.339 6 -10016302.672 6  21156216.273    21156221.898          18.250
        20.250
 -13741585.867 6 -10707735.467 6  20803610.164    20803614.172          16.500
        23.250
  -7019147.512 6  -5469463.343 6  21996459.203    21996465.781          19.250
        17.500
  18294621.975 5  14271274.677 5  22895966.031    22895973.660          11.500
        11.250
   3110560.552 6   2433483.052 6  21137993.805    21137999.684          18.500
        17.750
   -784972.807 6   -593879.418 5  22508747.641    22508753.691          14.250
        11.000
   4670230.833 3   3644223.264 5  24309950.109    24309959.707           5.500
         7.750
 99  3  2 17  8 15.0000000  0  7G27G13G 2G18G19G31G10
 -11722517.377 6 -10020011.801 6  21155310.484    21155315.973          18.000
        20.250
 -13726868.515 6 -10696267.420 6  20806410.789    20806414.859          16.500
        23.250
  -7019501.610 6  -5469739.264 6  21996391.883    21996398.355          19.000
        17.750
  18366176.072 5  14327031.042 5  22909582.664    22909590.078          11.500
        11.250
   3143630.331 6   2459251.688 6  21144286.781    21144292.570          18.500
        17.750
   -734111.755 6   -554247.460 5  22518426.180    22518432.367          14.250
        11.000
   4709482.377 3   3674808.790 5  24317420.492    24317430.309           6.000
         8.750
 99  3  2 17  8 30.0000000  0  7G27G13G 2G18G19G31G10
 -11727200.473 6 -10023660.976 6  21154419.445    21154424.957          18.250
        20.250
 -13711985.354 6 -10684670.178 6  20809243.102    20809247.043          16.750
        23.250
  -7019771.767 6  -5469949.777 6  21996340.328    21996346.867          19.000
        17.750
  18437820.477 5  14382857.767 5  22923216.008    22923223.711          11.500
        11.250
   3176793.988 6   2485093.476 6  21150597.594    21150603.465          18.500
        17.750
   -683099.963 6   -514498.044 5  22528133.492    22528139.633          14.250
        11.000
   4748848.475 3   3705483.574 5  24324911.508    24324921.133           5.750
         9.000
 99  3  2 17  8 45.0000000  0  7G27G13G 2G18G19G31G10
 -11731801.889 6 -10027246.505 6  21153543.617    21153549.059          18.250
        20.250
 -13696930.402 6 -10672939.063 6  20812107.992    20812111.930          16.750
        23.250
  -7019958.427 6  -5470095.225 6  21996304.867    21996311.488          18.750
        17.750
  18509558.253 5  14438757.259 5  22936867.227    22936874.984          11.500
        11.000
   3210055.335 6   2511011.381 6  21156927.055    21156932.895          18.500
        17.750
   -631934.934 6   -474629.231 5  22537869.844    22537876.082          14.250
        11.000
   4788332.229 3   3736250.026 5  24332424.031    24332433.531           5.000
         7.750
 99  3  2 17  9  0.0000000  0  7G27G13G 2G18G19G31G10
 -11736323.909 6 -10030770.167 6  21152683.148    21152688.719          18.250
        20.250
 -13681701.878 6 -10661072.699 6  20815005.883    20815009.832          16.750
        23.250
  -7020066.699 6  -5470179.596 6  21996284.164    21996290.691          18.750
        17.750
  18581386.602 5  14494727.315 5  22950536.188    22950543.719          11.750
        11.250
   3243414.014 6   2537005.128 6  21163274.945    21163280.715          18.500
        17.750
   -580618.278 6   -434642.264 5  22547635.063    22547641.266          14.250
        11.000
   4827931.095 3   3767106.211 5  24339960.164    24339969.504           5.500
         7.750
 99  3  2 17  9 15.0000000  0  7G27G13G 2G18G19G31G10
 -11740765.645 6 -10034231.265 6  21151838.016    21151843.457          18.250
        20.250
 -13666298.115 6 -10649069.789 6  20817937.109    20817941.125          16.750
        23.250
  -7020091.677 6  -5470199.058 6  21996279.453    21996286.070          18.500
        18.000
  18653307.292 5  14550769.335 5  22964221.891    22964229.531          11.250
        11.250
   3276873.519 6   2563077.444 6  21169642.242    21169648.043          18.750
        18.000
   -529150.251 6   -394537.341 5  22557429.180    22557435.363          14.000
        11.000
   4867649.006 3   3798055.142 5  24347517.953    24347528.926           5.000
         9.250
 99  3  2 17  9 30.0000000  0  7G27G13G 2G18G19G31G10
 -11745123.282 6 -10037626.833 6  21151008.742    21151014.383          18.250
        20.250
 -13650720.636 6 -10636931.516 6  20820901.406    20820905.492          16.750
        23.250
  -7020029.565 6  -5470150.661 6  21996291.164    21996297.805          18.500
        18.250
  18725321.512 5  14606884.225 5  22977925.758    22977933.828          11.250
        11.250
   3310438.388 6   2589231.862 6  21176029.305    21176035.219          18.750
        18.000
   -477530.418 6   -354314.140 5  22567252.086    22567258.461          14.000
        11.000
   4907487.032 3   3829097.624 5  24355098.883    24355109.637           5.000
         8.750
 99  3  2 17  9 45.0000000  0  7G27G13G 2G18G19G31G10
 -11749399.528 6 -10040958.987 6  21150194.883    21150200.523          18.250
        20.250
 -13634972.517 6 -10624660.267 6  20823898.148    20823902.250          16.750
        23.250
  -7019879.935 6  -5470034.066 6  21996319.516    21996326.188          18.500
        18.250
  18797423.703 5  14663067.672 5  22991646.953    22991654.293          11.500
        11.000
   3344108.725 6   2615468.463 6  21182436.672    21182442.551          18.750
        18.000
   -425763.738 6   -313976.503 5  22577102.875    22577109.242          14.000
        11.000
   4947444.307 3   3860233.081 5  24362703.609    24362711.492           5.750
         7.250
 99  3  2 17 10  0.0000000  0  7G27G13G 2G18G19G31G10
 -11753589.879 6 -10044224.201 6  21149397.609    21149403.055          18.250
        20.000
 -13619047.783 6 -10612251.402 6  20826928.492    20826932.691          16.750
        23.250
  -7019632.234 6  -5469841.053 6  21996366.797    21996373.438          18.250
        18.250
  18869622.105 5  14719326.079 5  23005385.242    23005393.281          11.250
        11.000
   3377891.550 6   2641792.714 6  21188865.234    21188871.211          18.750
        18.000
   -373844.958 6   -273520.350 5  22586982.711    22586988.969          13.500
        10.750
   4987528.797 3   3891467.701 5  24370330.719    24370339.793           5.250
         7.500
 99  3  2 17 10 15.0000000  0  7G27G13G 2G18G19G31G10
 -11757703.041 6 -10047429.273 6  21148614.977    21148620.438          18.250
        20.250
 -13602953.365 6 -10599710.312 6  20829991.148    20829995.316          16.500
        23.250
  -7019295.988 6  -5469579.039 6  21996430.828    21996437.480          18.500
        18.250
  18941907.386 5  14775652.179 5  23019141.117    23019148.711          11.250
        10.500
   3411779.638 6   2668198.995 6  21195313.883    21195319.840          18.500
        18.000
   -321779.703 6   -232950.062 5  22596890.297    22596896.594          13.500
        10.500
   5027735.938 3   3922797.828 5  24377981.633    24377992.652           5.000
         9.000
 99  3  2 17 10 30.0000000  0  7G27G13G 2G18G19G31G10
 -11761736.350 6 -10050572.117 6  21147847.445    21147852.922          18.250
        20.250
 -13586682.699 6 -10587031.895 6  20833087.344    20833091.508          16.500
        23.250
  -7018869.494 6  -5469246.713 6  21996511.977    21996518.539          18.750
        18.250
  19014283.710 5  14832049.234 5  23032913.680    23032921.949          11.000
        10.500
   3445779.287 6   2694692.200 6  21201783.875    21201789.895          18.500
        18.000
   -269561.232 6   -192260.378 5  22606827.469    22606833.699          13.500
        10.500
   5068072.770 4   3954229.017 5  24385659.320    24385668.750           6.250
         9.000
 99  3  2 17 10 45.0000000  0  7G27G13G 2G18G19G31G10
 -11765697.874 6 -10053659.028 6  21147093.695    21147099.141          18.500
        20.250
 -13570239.098 6 -10574218.712 6  20836216.453    20836220.715          16.250
        23.250
  -7018355.202 6  -5468845.963 6  21996609.805    21996616.426          18.750
        18.500
  19086741.838 5  14888510.029 5  23046702.125    23046709.906          11.000
        10.500
   3479884.616 6   2721267.758 6  21208273.938    21208279.961          18.500
        18.000
   -217189.580 6   -151451.342 5  22616793.484    22616799.848          13.500
        10.500
   5108533.924 3   3985757.121 5  24393357.461    24393366.262           5.250
         7.250
 99  3  2 17 11  0.0000000  0  7G27G13G 2G18G19G31G10
 -11769591.284 6 -10056692.861 6  21146352.727    21146358.250          18.250
        20.250
 -13553626.470 6 -10561273.830 6  20839377.773    20839381.910          16.250
        23.250
  -7017756.007 6  -5468379.054 6  21996723.945    21996730.609          18.750
        18.500
  19159278.367 5  14945031.906 5  23060505.766    23060513.434          11.000
        10.500
   3514092.935 6   2747923.567 6  21214783.695    21214789.727          18.500
        18.000
   -164663.925 6   -110522.294 5  22626788.508    22626795.059          13.250
        10.500
   5149116.697 2   4017379.970 5  24401079.586    24401089.160           4.750
         7.250
 99  3  2 17 11 15.0000000  0  7G27G13G 2G18G19G31G10
 -11773413.441 6 -10059671.177 6  21145625.445    21145630.980          18.250
        20.250
 -13536842.580 6 -10548195.496 6  20842571.648    20842575.816          16.250
        23.250
  -7017063.881 6  -5467839.746 6  21996855.609    21996862.195          18.750
        18.500
  19231896.217 5  15001617.163 5  23074323.734    23074331.922          10.750
        10.250
   3548406.719 6   2774661.553 6  21221313.273    21221319.391          18.500
        18.250
   -111977.078 6    -69467.644 5  22636814.516    22636820.965          13.250
        10.500
   5189824.188 4   4049100.007 5  24408828.195    24408837.629           6.250
         9.250
 99  3  2 17 11 30.0000000  0  7G27G13G 2G18G19G31G10
 -11777162.943 6 -10062592.874 6  21144911.961    21144917.414          18.250
        20.250
 -13519889.592 6 -10534985.389 6  20845797.633    20845801.898          16.000
        23.250
  -7016276.940 6  -5467226.546 6  21997005.367    21997011.891          18.750
        18.750
  19304596.422 5  15058266.597 5  23088159.281    23088166.660          11.000
        10.500
   3582824.587 6   2801480.647 6  21227862.984    21227868.992          18.500
        18.000
    -59128.874 6    -28287.272 5  22646871.219    22646877.688          13.250
        10.500
   5230654.264 3   4080915.557 5  24416596.797    24416607.402           5.500
         9.250
 99  3  2 17 11 45.0000000  0  7G27G13G 2G18G19G31G10
 -11780846.282 6 -10065463.015 6  21144211.063    21144216.617          18.250
        20.250
 -13502775.844 6 -10521650.024 6  20849054.328    20849058.527          16.000
        23.250
  -7015403.632 6  -5466546.047 6  21997171.500    21997178.117          19.000
        18.750
  19377370.481 5  15114973.562 5  23102007.016    23102015.234          10.750
        10.250
   3617337.073 6   2828373.472 6  21234430.375    21234436.434          18.500
        18.000
     -6128.603 6     13011.596 5  22656956.875    22656963.430          13.250
        10.500
   5271597.043 2   4112818.895 5  24424386.758    24424397.152           4.750
         7.750
 99  3  2 17 12  0.0000000  0  7G27G13G 2G18G19G31G10
 -11784462.932 6 -10068281.196 6  21143522.719    21143528.223          18.250
        20.250
 -13485498.575 6 -10508187.239 6  20852342.047    20852346.348          16.000
        23.000
  -7014443.738 6  -5465798.078 6  21997354.281    21997360.801          19.000
        19.000
  19450220.530 5  15171739.746 5  23115870.219    23115878.008          11.000
        10.000
   3651944.319 6   2855340.134 6  21241015.922    21241022.004          18.500
        18.000
     47021.585 6     54427.291 5  22667071.023    22667077.559          13.250
        10.500
   5312654.119 3   4144811.353 5  24432201.750    24432210.359           6.000
         8.000
 99  3  2 17 12 15.0000000  0  7G27G13G 2G18G19G31G10
 -11788010.963 6 -10071045.904 6  21142847.656    21142853.188          18.250
        20.500
 -13468055.961 6 -10494595.613 6  20855661.266    20855665.563          16.000
        23.000
  -7013402.772 6  -5464986.935 6  21997552.281    21997558.824          19.250
        19.000
  19523147.009 5  15228565.492 5  23129748.008    23129755.742          11.000
        10.000
   3686644.934 6   2882379.552 6  21247619.203    21247625.266          18.500
        18.250
    100322.121 6     95960.121 5  22677213.742    22677220.234          13.000
        10.250
   5353825.626 4   4176892.970 5  24440036.633    24440046.453           6.250
         9.250
 99  3  2 17 12 30.0000000  0  7G27G13G 2G18G19G31G10
 -11791494.038 6 -10073759.990 6  21142184.844    21142190.355          18.250
        20.500
 -13450450.974 6 -10480877.461 6  20859011.430    20859015.734          16.000
        23.000
  -7012286.419 6  -5464117.048 6  21997764.898    21997771.453          19.500
        19.000
  19596143.620 5  15285445.884 5  23143638.367    23143646.332          11.000
         9.750
   3721436.130 6   2909489.559 6  21254239.922    21254246.000          18.750
        18.250
    153769.566 6    137607.443 5  22687384.484    22687391.207          13.000
        10.500
   5395108.129 2   4209061.042 5  24447890.078    24447901.672           4.750
         8.500
 99  3  2 17 12 45.0000000  0  7G27G13G 2G18G19G31G10
 -11794901.297 6 -10076415.008 6  21141536.367    21141541.953          18.250
        20.500
 -13432678.186 6 -10467028.559 6  20862393.477    20862397.719          16.000
        23.000
  -7011086.622 6  -5463182.147 6  21997993.141    21997999.746          19.750
        19.250
  19669216.327 5  15342385.563 5  23157544.188    23157551.781          11.500
         9.750
   3756323.942 6   2936674.836 6  21260878.859    21260884.887          18.500
        18.250
    207369.119 6    179373.284 5  22697584.188    22697590.887          13.000
        10.500
   5436506.012 3   4241319.018 5  24455770.148    24455778.629           6.000
         7.500
 99  3  2 17 13  0.0000000  0  7G27G13G 2G18G19G31G10
 -11798237.286 6 -10079014.490 6  21140901.656    21140907.152          18.250
        20.500
 -13414744.906 6 -10453054.594 6  20865806.141    20865810.430          16.000
        23.000
  -7009811.331 6  -5462188.416 6  21998235.758    21998242.453          19.750
        19.500
  19742355.455 5  15399377.005 5  23171461.906    23171469.754          11.250
         9.750
   3791299.720 6   2963928.671 6  21267534.555    21267540.809          18.500
        18.250
    261110.614 6    221249.736 5  22707810.992    22707817.516          13.000
        10.500
   5478009.414 3   4273659.293 5  24463667.680    24463676.539           6.000
         7.250
 99  3  2 17 13 15.0000000  0  7G27G13G 2G18G19G31G10
 -11801492.048 6 -10081550.683 6  21140282.188    21140287.852          18.000
        20.500
 -13396645.100 6 -10438950.869 6  20869250.391    20869254.656          16.000
        23.000
  -7008454.724 6  -5461131.318 6  21998493.938    21998500.594          19.750
        19.500
  19815570.117 5  15456427.315 5  23185394.203    23185402.059          11.500
         9.750
   3826371.611 6   2991257.392 6  21274208.523    21274214.617          18.500
        18.250
    314995.616 6    263238.008 5  22718064.977    22718071.613          13.000
        10.500
   5519626.432 3   4306088.056 5  24471586.492    24471596.375           5.000
         7.500
 99  3  2 17 13 30.0000000  0  7G27G13G 2G18G19G31G10
 -11804666.579 6 -10084024.354 6  21139678.258    21139683.824          18.250
        20.500
 -13378379.472 6 -10424717.932 6  20872726.297    20872730.477          16.000
        23.000
  -7007020.124 6  -5460013.456 6  21998767.055    21998773.527          19.750
        19.750
  19888855.957 5  15513533.067 5  23199340.266    23199348.297          11.250
         9.750
   3861539.477 6   3018660.898 6  21280900.789    21280906.973          18.500
        18.250
    369017.257 6    305332.741 5  22728344.984    22728351.680          13.000
        10.500
   5561355.846 3   4338604.343 5  24479527.461    24479538.145           5.000
         7.500
 99  3  2 17 13 45.0000000  0  7G27G13G 2G18G19G31G10
 -11807757.443 6 -10086432.828 6  21139090.016    21139095.668          18.250
        20.500
 -13359945.029 6 -10410353.455 6  20876234.258    20876238.527          16.000
        22.750
  -7005506.632 7  -5458834.116 6  21999055.047    21999061.652          20.000
        19.750
  19962215.958 5  15570696.616 5  23213300.453    23213308.027          11.500
         9.750
   3896806.598 6   3046141.751 6  21287611.883    21287618.063          18.500
        18.250
    423174.129 6    347532.864 5  22738650.695    22738657.355          13.000
        10.500
   5603201.177 3   4371211.013 5  24487491.156    24487498.820           5.250
         5.500
 99  3  2 17 14  0.0000000  0  7G27G13G 2G18G19G31G10
 -11810761.378 6 -10088773.569 6  21138518.469    21138524.035          18.250
        20.500
 -13341338.270 6 -10395854.699 6  20879774.969    20879779.297          16.000
        22.750
  -7003913.847 7  -5457592.990 6  21999358.117    21999364.715          20.000
        19.750
  20035650.827 5  15627918.512 5  23227274.539    23227282.387          11.250
         9.750
   3932176.832 6   3073702.952 6  21294342.656    21294348.969          18.500
        18.250
    477469.658 6    389841.025 5  22748982.977    22748989.449          13.000
        10.500
   5645168.352 2   4403912.680 4  24495475.250    24495482.457           4.250
         4.250
 99  3  2 17 14 15.0010000  0  7G27G13G 2G18G19G31G10
 -11813686.281 6 -10091052.721 6  21137961.653    21137967.290          18.250
        20.500
 -13322564.907 6 -10381226.123 6  20883347.481    20883351.813          16.000
        22.750
  -7002250.590 7  -5456296.949 6  21999674.739    21999681.403          20.000
        19.750
  20109158.847 5  15685197.390 5  23241263.052    23241270.743          11.500
         9.750
   3967644.151 6   3101339.798 6  21301091.794    21301097.942          18.500
        18.250
    531904.947 6    432258.087 5  22759341.638    22759348.196          13.000
        10.500
   5687252.022 2   4436705.059 5  24503483.536    24503493.165           4.000
         5.500
 99  3  2 17 14 30.0010000  0  7G27G13G 2G18G19G31G10
 -11816539.040 6 -10093275.660 6  21137418.966    21137424.587          18.000
        20.750
 -13303633.971 6 -10366474.760 6  20886949.935    20886954.224          16.000
        22.750
  -7000519.001 7  -5454947.662 6  22000004.200    22000010.864          20.250
        20.000
  20182723.203 5  15742520.173 5  23255261.364    23255269.603          11.250
         9.750
   4003199.106 6   3129044.935 6  21307857.794    21307863.919          18.500
        18.250
    586471.657 6    474777.560 5  22769725.247    22769732.005          13.000
        10.500
   5729438.876 3   4469577.821 5  24511513.208    24511522.450           5.250
         6.000
 99  3  2 17 14 45.0010000  0  7G27G13G 2G18G19G31G10
 -11819311.459 6 -10095436.002 6  21136891.255    21136896.825          18.000
        20.750
 -13284539.385 6 -10351595.888 6  20890583.505    20890587.813          16.000
        22.750
  -6998706.334 7  -5453535.195 6  22000349.185    22000355.810          20.250
        20.000
  20256356.883 5  15799896.982 5  23269273.731    23269281.653          11.250
         9.750
   4038852.329 6   3156826.643 6  21314642.341    21314648.505          18.250
        18.250
    641180.093 6    517407.463 5  22780136.130    22780142.743          13.000
        10.500
   5771735.732 3   4502536.359 5  24519562.466    24519568.587           5.250
         4.500
 99  3  2 17 15  0.0010000  0  7G27G13G 2G18G19G31G10
 -11822006.633 6 -10097536.145 6  21136378.497    21136384.173          18.000
        20.750
 -13265282.423 6 -10336590.487 6  20894248.005    20894252.333          16.250
        22.500
  -6996814.318 7  -5452060.907 6  22000709.302    22000715.837          20.500
        20.000
  20330055.616 5  15857324.466 5  23283298.231    23283306.067          11.250
         9.750
   4074599.391 6   3184681.478 6  21321444.755    21321451.165          18.250
        18.250
    696026.776 6    560145.095 5  22790573.364    22790580.220          13.000
        10.500
   5814137.993 2   4535577.017 4  24527629.911    24527637.251           4.500
         4.250
 99  3  2 17 15 15.0010000  0  7G27G13G 2G18G19G31G10
 -11824627.739 6 -10099578.583 6  21135879.692    21135885.337          18.000
        20.500
 -13245861.287 6 -10321457.149 6  20897943.810    20897948.024          16.250
        22.500
  -6994842.941 7  -5450524.770 6  22001084.458    22001091.009          20.750
        20.000
  20403819.576 5  15914802.782 5  23297334.974    23297343.235          11.000
        10.000
   4110441.157 6   3212610.100 6  21328265.192    21328271.532          18.000
        18.000
    751011.989 6    602990.666 5  22801036.575    22801043.013          13.250
        10.250
   5856646.121 3   4568700.182 5  24535720.755    24535730.884           5.500
         6.500
 99  3  2 17 15 30.0010000  0  7G27G13G 2G18G19G31G10
 -11827180.056 6 -10101567.411 6  21135394.036    21135399.665          18.000
        20.500
 -13226276.368 6 -10306196.197 6  20901670.731    20901674.950          16.250
        22.500
  -6992794.889 7  -5448928.884 6  22001474.185    22001480.739          20.750
        20.000
  20477647.803 5  15972331.171 5  23311384.560    23311392.274          11.000
        10.500
   4146378.486 6   3240613.187 6  21335103.950    21335110.325          18.000
        18.250
    806136.202 6    645944.560 5  22811526.630    22811533.130          13.250
        10.500
   5899255.583 3   4601902.249 5  24543828.599    24543839.317           5.500
         8.250
 99  3  2 17 15 45.0010000  0  7G27G13G 2G18G19G31G10
 -11829666.441 6 -10103504.863 6  21134920.716    21134926.427          18.000
        20.750
 -13206526.684 6 -10290806.853 6  20905428.958    20905433.157          16.250
        22.500
  -6990669.479 7  -5447272.718 6  22001878.489    22001885.075          20.750
        20.000
  20551540.871 5  16029910.092 5  23325445.247    23325453.884          10.500
        10.500
   4182410.718 6   3268690.228 6  21341960.435    21341966.724          18.000
        18.250
    861403.296 6    689009.782 5  22822043.450    22822049.907          13.250
        10.500
   5941964.249 2   4635181.630 5  24551954.646    24551966.298           4.750
         8.000
 99  3  2 17 16  0.0010000  0  7G27G13G 2G18G19G31G10
 -11832079.011 6 -10105384.802 6  21134461.817    21134467.513          17.750
        20.750
 -13186602.489 6 -10275281.529 6  20909220.528    20909224.731          16.500
        22.750
  -6988456.039 7  -5445547.969 6  22002299.771    22002306.282          20.750
        20.000
  20625509.143 5  16087547.606 5  23339521.435    23339529.501          10.750
        10.500
   4218547.180 6   3296848.487 6  21348837.036    21348843.372          18.000
        18.250
    916826.248 6    732196.451 5  22832590.044    22832596.919          13.250
        10.500
   5984780.551 3   4668544.857 5  24560103.724    24560113.856           5.250
         7.250
 99  3  2 17 16 15.0010000  0  7G27G13G 2G18G19G31G10
 -11834437.531 6 -10107222.623 6  21134012.981    21134018.708          17.750
        20.750
 -13166520.919 6 -10259633.570 6  20913041.856    20913046.040          16.500
        22.500
  -6986169.933 7  -5443766.590 6  22002734.755    22002741.321          20.750
        20.250
  20699535.228 5  16145230.173 5  23353607.950    23353616.169          10.750
        10.500
   4254770.823 6   3325074.676 6  21355730.239    21355736.583          18.000
        18.250
    972388.709 6    775491.841 5  22843163.271    22843169.954          13.250
        10.500
   6027686.095 3   4701977.703 5  24568268.435    24568278.688           5.750
         7.500
 99  3  2 17 16 30.0010000  0  7G27G13G 2G18G19G31G10
 -11836738.016 6 -10109015.219 6  21133575.138    21133581.001          17.750
        20.750
 -13146276.546 6 -10243858.762 6  20916894.294    20916898.442          16.500
        22.750
  -6983803.779 7  -5441922.832 6  22003185.060    22003191.622          20.750
        20.250
  20773624.997 5  16202962.365 5  23367707.138    23367715.317          10.750
        10.750
   4291086.384 6   3353372.492 6  21362640.786    21362647.126          18.000
        18.250
   1028093.312 6    818897.976 5  22853763.669    22853770.329          13.250
        10.500
   6070686.153 3   4735484.154 5  24576450.356    24576462.325           5.000
         8.750
 99  3  2 17 16 45.0010000  0  7G27G13G 2G18G19G31G10
 -11838978.711 6 -10110761.229 6  21133148.802    21133154.603          17.750
        20.750
 -13125867.189 6 -10227955.382 6  20920778.130    20920782.251          16.500
        22.500
  -6981356.342 7  -5440015.738 6  22003650.880    22003657.392          20.500
        20.000
  20847776.983 5  16260743.041 5  23381818.114    23381825.966          10.750
        10.500
   4327495.764 6   3381743.406 6  21369569.349    21369575.653          17.750
        18.250
   1083937.681 6    862413.033 5  22864390.403    22864397.263          13.250
        10.500
   6113784.028 3   4769066.787 5  24584652.966    24584663.669           5.750
         8.750
 99  3  2 17 17  0.0010000  0  7G27G13G 2G18G19G31G10
 -11841165.179 6 -10112464.985 6  21132732.716    21132738.509          17.500
        21.000
 -13105298.970 6 -10211928.222 6  20924692.075    20924696.286          16.500
        22.750
  -6978841.781 7  -5438056.345 6  22004129.294    22004135.974          20.500
        20.250
  20921981.984 5  16318565.014 5  23395938.864    23395947.075          11.000
        10.500
   4363988.798 6   3410179.510 6  21376513.786    21376520.267          17.750
        18.250
   1139911.417 6    906028.892 5  22875042.106    22875048.802          13.000
        10.750
   6156974.325 3   4802721.471 5  24592871.778    24592882.048           6.000
         7.750
 99  3  2 17 17 15.0010000  0  8G27G13G 7G 2G18G19G31G10
 -11843288.951 6 -10114119.883 6  21132328.521    21132334.372          17.500
        21.000
 -13084561.518 6 -10195769.190 6  20928638.263    20928642.497          16.500
        22.750
     -4358.14413     -3395.59015  24155324.903    24155335.271           5.750
         8.000
  -6976254.702 7  -5436040.435 6  22004621.536    22004628.099          20.500
        20.000
  20996247.510 5  16376434.152 5  23410071.106    23410079.282          11.000
        10.250
   4400574.291 6   3438687.660 6  21383475.700    21383482.067          18.000
        18.250
   1196023.214 6    949752.324 5  22885719.786    22885726.454          13.000
        10.750
   6200268.231 3   4836456.912 5  24601109.817    24601119.935           5.500
         6.250
 99  3  2 17 17 30.0010000  0  8G27G13G 7G 2G18G19G31G10
 -11845355.905 6 -10115730.503 6  21131935.169    21131941.091          17.500
        21.000
 -13063665.112 6 -10179486.293 6  20932614.778    20932619.009          16.750
        22.750
    -37035.981 3    -28858.771 5  24149105.942    24149116.845           5.750
         8.250
  -6973605.048 7  -5433975.770 6  22005125.739    22005132.321          20.500
        20.000
  21070566.623 5  16434345.055 5  23424213.388    23424221.899          10.750
        10.500
   4437244.202 6   3467261.591 6  21390453.896    21390460.333          17.750
        18.250
   1252264.693 6    993576.815 5  22896421.935    22896428.868          13.000
        10.750
   6243659.070 2   4870267.865 5  24609365.942    24609377.501           4.750
         6.500
 99  3  2 17 17 45.0010000  0  8G27G13G 7G 2G18G19G31G10
 -11847358.604 6 -10117291.063 6  21131554.083    21131560.060          17.500
        21.000
 -13042606.575 6 -10163077.069 6  20936622.153    20936626.325          16.500
        22.750
    -69676.918 3    -54293.225 5  24142894.450    24142905.247           5.750
         8.250
  -6970884.680 7  -5431856.002 6  22005643.380    22005649.962          20.500
        20.000
  21144944.341 5  16492301.616 5  23438366.974    23438375.681          11.000
        10.500
   4474001.977 6   3495903.989 6  21397448.646    21397454.896          17.750
        18.000
   1308640.168 6   1037505.715 5  22907150.091    22907156.759          13.000
        10.750
   6287155.778 3   4904161.253 5  24617643.622    24617654.532           5.000
         6.500
 99  3  2 17 18  0.0010000  0  8G27G13G 7G 2G18G19G31G10
 -11849298.377 6 -10118802.586 6  21131184.958    21131190.876          17.500
        21.000
 -13021392.808 6 -10146546.881 6  20940658.919    20940663.161          16.500
        23.000
   -102286.710 3    -79703.396 5  24136689.271    24136699.981           5.750
         8.000
  -6968095.169 7  -5429682.359 6  22006174.216    22006180.806          20.500
        20.000
  21219372.933 5  16550297.809 5  23452530.739    23452538.962          10.750
        10.250
   4510840.621 6   3524609.394 6  21404458.817    21404465.263          17.500
        18.000
   1365141.883 6   1081532.983 5  22917901.958    22917908.739          12.750
        10.750
   6330757.416 4   4938136.468 5  24625942.271    24625951.360           6.750
         5.000
 99  3  2 17 18 15.0010000  0  8G27G13G 7G 2G18G19G31G10
 -11851164.271 6 -10120256.547 6  21130829.950    21130835.802          17.250
        21.000
 -13000017.047 6 -10129890.470 6  20944726.669    20944730.849          16.500
        23.000
   -134857.399 3   -105083.099 5  24130491.364    24130501.880           6.000
         8.000
  -6965228.286 7  -5427448.424 6  22006719.802    22006726.380          20.500
        20.000
  21293858.506 5  16608338.413 5  23466704.638    23466713.278          10.750
        10.500
   4547765.291 6   3553381.835 6  21411485.466    21411491.860          17.500
        18.000
   1421775.227 6   1125662.820 5  22928678.981    22928685.896          12.750
        10.750
   6374470.572 3   4972198.677 2  24634259.646    24634261.626           5.500
         2.250
 99  3  2 17 18 30.0010000  0  7G27G13G 7G 2G18G19G31
 -11852963.120 6 -10121658.254 6  21130487.638    21130493.497          17.250
        21.000
 -12978487.761 6 -10113114.422 6  20948823.497    20948827.837          16.500
        23.000
   -167395.788 3   -130437.612 5  24124299.263    24124310.079           6.000
         8.250
  -6962292.777 7  -5425161.010 6  22007278.333    22007285.013          20.250
        20.000
  21368393.080 5  16666417.203 5  23480888.528    23480896.407          10.750
        10.000
   4584767.005 6   3582214.311 6  21418526.622    21418533.146          17.500
        18.000
   1478530.963 6   1169888.033 5  22939479.388    22939486.075          12.750
        10.750
 99  3  2 17 18 45.0010000  0  7G27G13G 7G 2G18G19G31
 -11854691.949 6 -10123005.404 6  21130158.536    21130164.536          17.500
        21.250
 -12956804.115 6 -10096218.091 6  20952949.747    20952954.114          16.500
        23.000
   -199898.494 3   -155764.365 5  24118114.536    24118124.790           6.000
         8.000
  -6959289.720 7  -5422820.966 6  22007849.810    22007856.431          20.250
        20.000
  21442976.186 5  16724533.803 5  23495081.138    23495089.700          10.750
        10.500
   4621846.556 6   3611107.439 6  21425582.638    21425589.185          17.500
        18.000
   1535408.664 6   1214208.271 5  22950302.692    22950309.567          12.500
        10.750
 99  3  2 17 19  0.0010000  0  7G27G13G 7G 2G18G19G31
 -11856348.392 6 -10124296.144 6  21129843.356    21129849.321          17.500
        21.000
 -12934965.141 6 -10079200.732 6  20957105.497    20957109.919          16.500
        23.000
   -232361.654 3   -181060.282 5  24111936.489    24111947.142           5.750
         8.000
  -6956215.729 7  -5420425.644 6  22008434.692    22008441.282          20.250
        20.000
  21517611.118 5  16782690.800 5  23509283.505    23509291.872          10.000
        10.500
   4659007.848 6   3640064.262 6  21432654.263    21432660.720          17.750
        18.000
   1592411.520 6   1258626.039 5  22961149.950    22961156.919          12.750
        10.750
 99  3  2 17 19 15.0010000  0  7G27G13G 7G 2G18G19G31
 -11857934.590 6 -10125532.155 6  21129541.591    21129547.415          17.500
        21.000
 -12912977.198 6 -10062067.300 6  20961289.771    20961294.087          16.500
        22.750
   -264785.666 4   -206325.680 5  24105766.731    24105776.954           6.250
         8.000
  -6953070.828 7  -5417975.076 6  22009033.263    22009039.911          20.000
        19.750
  21592296.478 5  16840887.072 5  23523495.763    23523504.642          10.000
        10.500
   4696248.109 6   3669082.615 6  21439740.700    21439747.212          17.500
        18.000
   1649535.048 6   1303137.844 5  22972020.247    22972027.247          12.500
        10.500
 99  3  2 17 19 30.0010000  0  7G27G13G 7G 2G18G19G31
 -11859457.268 6 -10126718.665 6  21129251.942    21129257.747          17.750
        21.000
 -12890845.218 6 -10044821.617 6  20965501.239    20965505.642          16.250
        22.250
   -297173.458 3   -231562.875 5  24099603.567    24099613.653           6.000
         7.750
  -6949854.618 7  -5415468.932 6  22009645.200    22009651.810          20.000
        19.250
  21667030.620 5  16899121.362 5  23537717.466    23537725.868           9.750
        10.000
   4733563.880 6   3698159.819 6  21446841.794    21446848.142          17.500
        17.750
   1706775.659 6   1347740.877 5  22982912.856    22982919.735          12.750
        10.750
 99  3  2 17 19 45.0010000  0  7G27G13G 7G 2G18G19G31
 -11860915.162 6 -10127854.696 6  21128974.411    21128980.321          17.500
        21.000
 -12868565.848 6 -10027461.089 6  20969740.896    20969745.267          16.250
        22.750
   -329524.274 4   -256771.240 5  24093447.380    24093457.614           6.250
         8.000
  -6946561.579 7  -5412902.930 6  22010271.794    22010278.427          20.000
        19.500
  21741820.339 5  16957398.949 5  23551949.356    23551958.306          10.000
        10.000
   4770959.597 6   3727299.297 6  21453957.942    21453964.321          17.750
        18.000
   1764135.967 6   1392437.183 5  22993828.224    22993835.153          12.500
        10.500
 99  3  2 17 20  0.0010000  0  7G27G13G 7G 2G18G19G31
 -11862311.818 6 -10128943.010 6  21128708.646    21128714.563          17.500
        21.000
 -12846140.293 6 -10009986.652 6  20974008.411    20974012.782          16.500
        23.000
   -361841.788 4   -281953.659 5  24087297.450    24087307.688           6.250
         7.750
  -6943194.026 7  -5410278.863 6  22010912.630    22010919.251          20.000
        19.750
  21816662.595 5  17015717.494 5  23566191.153    23566200.271           9.750
        10.250
   4808436.202 6   3756501.817 6  21461089.513    21461095.966          17.750
        18.000
   1821614.267 6   1437225.433 5  23004766.091    23004772.962          12.500
        10.750
 99  3  2 17 20 15.0010000  0  7G27G13G 7G 2G18G19G31
 -11863644.061 6 -10129981.126 6  21128455.044    21128461.040          17.500
        21.000
 -12823562.772 6  -9992393.801 6  20978304.810    20978309.251          16.500
        23.000
   -394122.654 4   -307107.533 5  24081154.700    24081164.790           6.250
         7.750
  -6939753.925 7  -5407598.261 6  22011567.302    22011573.896          20.000
        19.500
  21891562.043 5  17074080.592 5  23580444.638    23580453.052          10.000
        10.000
   4845998.363 6   3785771.008 6  21468237.528    21468243.950          18.000
        18.000
   1879214.269 6   1482108.505 5  23015727.013    23015734.060          12.500
        10.750
 99  3  2 17 20 30.0010000  0  7G27G13G 7G 2G18G19G31
 -11864910.847 6 -10130968.238 6  21128214.169    21128220.106          17.500
        21.250
 -12800830.208 6  -9974680.131 6  20982630.685    20982635.048          16.500
        23.000
   -426367.792 4   -332233.569 5  24075018.247    24075028.642           6.250
         8.000
  -6936242.943 7  -5404862.433 6  22012235.419    22012242.192          20.000
        19.500
  21966521.113 5  17132490.141 5  23594708.614    23594717.544           9.750
        10.000
   4883650.067 6   3815109.968 6  21475402.419    21475408.798          17.750
        18.000
   1936937.628 6   1527087.710 5  23026711.435    23026718.407          12.500
        10.750
 99  3  2 17 20 45.0010000  0  7G27G13G 7G 2G18G19G31
 -11866104.761 6 -10131898.569 6  21127986.942    21127992.864          17.500
        21.250
 -12777935.020 6  -9956839.746 6  20986987.442    20986991.880          16.250
        23.000
   -458572.977 4   -357328.464 5  24068889.825    24068900.048           6.250
         7.750
  -6932657.409 7  -5402068.506 6  22012917.794    22012924.548          20.000
        19.500
  22041548.515 5  17190952.944 5  23608986.380    23608994.735           9.750
        10.000
   4921400.971 6   3844526.228 6  21482585.927    21482592.399          17.750
        18.000
   1994790.924 6   1572168.158 5  23037720.630    23037727.657          12.250
        10.750
 99  3  2 17 21  0.0010000  0  7G27G13G 7G 2G18G19G31
 -11867230.634 6 -10132775.883 6  21127772.755    21127778.673          17.750
        21.250
 -12754884.576 6  -9938878.381 6  20991373.872    20991378.247          16.500
        23.000
   -490749.275 4   -382400.850 5  24062767.091    24062777.224           6.500
         7.750
  -6929004.947 7  -5399222.425 6  22013612.677    22013619.388          20.000
        19.500
  22116635.767 5  17249462.381 5  23623275.106    23623283.903           9.500
        10.000
   4959245.234 6   3874015.237 6  21489787.685    21489794.024          18.000
        18.000
   2052766.401 6   1617343.806 5  23048752.794    23048759.884          12.250
        10.500
 99  3  2 17 21 15.0010000  0  7G27G13G 7G 2G18G19G31
 -11868284.528 6 -10133597.103 6  21127572.278    21127578.122          17.750
        21.250
 -12731675.387 6  -9920793.315 6  20995790.474    20995794.849          16.500
        23.000
   -522894.756 4   -407449.218 5  24056649.700    24056660.063           6.500
         8.000
  -6925284.571 7  -5396323.436 6  22014320.614    22014327.290          20.000
        19.500
  22191786.022 5  17308020.907 5  23637576.005    23637584.599           9.500
        10.000
   4997185.620 6   3903579.149 6  21497007.528    21497013.864          18.000
        18.000
   2110867.873 6   1662617.641 5  23059809.146    23059816.290          12.000
        10.500
 99  3  2 17 21 30.0010000  0  7G27G13G 7G 2G18G19G31
 -11869269.571 6 -10134364.676 6  21127384.794    21127390.630          17.750
        21.250
 -12708305.900 6  -9902583.344 6  21000237.606    21000241.966          16.500
        23.250
   -555011.224 4   -432474.988 5  24050537.896    24050548.466           6.250
         7.750
  -6921501.709 7  -5393375.746 6  22015040.599    22015047.204          20.000
        19.500
  22266996.418 5  17366626.303 5  23651887.747    23651896.942           9.250
        10.000
   5035218.213 6   3933214.904 6  21504244.810    21504251.220          18.000
        18.000
   2169093.097 6   1707987.907 5  23070889.239    23070896.071          12.000
        10.500
 99  3  2 17 21 45.0010000  0  7G27G13G 7G 2G18G19G31
 -11870184.221 6 -10135077.395 6  21127210.794    21127216.614          17.750
        21.250
 -12684771.459 6  -9884244.847 6  21004716.028    21004720.384          16.500
        23.250
   -587097.824 4   -457477.480 5  24044432.372    24044442.497           6.250
         8.000
  -6917657.311 7  -5390380.115 6  22015772.153    22015778.837          20.000
        19.500
  22342267.519 5  17425278.995 5  23666211.458    23666219.935           9.500
         9.750
   5073346.199 6   3962924.998 6  21511500.575    21511506.950          18.000
        18.000
   2227444.478 6   1753456.476 5  23081993.114    23082000.349          12.000
        10.750
 99  3  2 17 22  0.0010000  0  7G27G13G 7G 2G18G19G31
 -11871031.205 6 -10135737.397 6  21127049.653    21127055.513          18.000
        21.250
 -12661079.954 6  -9865783.948 6  21009224.427    21009228.825          16.750
        23.000
   -619160.300 3   -482461.181 5  24038330.724    24038341.313           6.000
         8.500
  -6913760.069 7  -5387343.294 6  22016513.872    22016520.435          20.000
        19.750
  22417587.586 5  17483969.841 5  23680544.638    23680553.271           9.750
         9.750
   5111561.930 6   3992703.457 6  21518772.739    21518779.075          18.250
        17.750
   2285914.354 5   1799017.371 5  23093119.364    23093126.587          11.750
        10.750
 99  3  2 17 22 15.0010000  0  7G27G13G 7G 2G18G19G31
 -11871806.984 6 -10136341.912 6  21126901.950    21126907.853          17.750
        21.250
 -12637230.735 6  -9847200.163 6  21013762.755    21013767.212          16.750
        23.250
   -651192.700 4   -507421.439 5  24032235.419    24032245.685           6.250
         8.500
  -6909809.438 7  -5384264.883 6  22017265.653    22017272.356          20.000
        19.750
  22492957.138 5  17542699.243 5  23694886.599    23694895.669           9.500
         9.750
   5149865.701 6   4022550.521 6  21526061.716    21526068.044          18.250
        17.500
   2344505.446 5   1844672.723 5  23104268.989    23104276.263          11.500
        10.500
 99  3  2 17 22 30.0010000  0  7G27G13G 7G 2G18G19G31
 -11872509.522 6 -10136889.348 6  21126768.341    21126774.290          17.750
        21.250
 -12613223.048 6  -9828492.888 6  21018331.349    21018335.767          16.750
        23.250
   -683191.761 4   -532355.710 5  24026145.911    24026156.442           6.250
         8.750
  -6905803.539 7  -5381143.392 6  22018027.911    22018034.622          20.000
        19.750
  22568377.260 5  17601468.063 5  23709238.810    23709247.778           9.500
         9.750
   5188255.873 6   4052464.915 6  21533367.247    21533373.458          18.250
        17.750
   2403216.700 5   1890421.724 5  23115441.341    23115448.688          11.500
        10.500
 99  3  2 17 22 45.0010000  0  7G27G13G 7G 2G18G19G31
 -11873141.592 6 -10137381.883 6  21126647.981    21126653.806          18.000
        21.250
 -12589062.311 6  -9809666.361 6  21022929.028    21022933.380          16.750
        23.000
   -715158.956 3   -557265.159 5  24020062.880    24020073.106           5.750
         8.500
  -6901744.744 6  -5377980.700 6  22018800.231    22018806.923          19.750
        19.250
  22643845.945 5  17660274.708 5  23723600.106    23723609.524           9.250
         9.500
   5226729.599 6   4082444.414 6  21540688.567    21540694.876          18.500
        17.750
   2462043.992 5   1936261.126 5  23126635.700    23126643.282          11.500
        10.750
 99  3  2 17 23  0.0010000  0  7G27G13G 7G 2G18G19G31
 -11873703.941 6 -10137820.079 6  21126541.067    21126546.853          18.000
        21.000
 -12564748.725 6  -9790720.727 6  21027555.731    21027560.091          16.750
        22.750
   -747090.080 3   -582146.484 5  24013986.325    24013997.056           6.000
         8.000
  -6897628.484 6  -5374773.219 6  22019583.380    22019590.114          19.750
        19.250
  22719362.478 5  17719118.648 5  23737970.364    23737979.884           9.000
         9.750
   5265287.100 6   4112489.195 6  21548025.872    21548032.138          18.500
        17.750
   2520986.949 5   1982190.661 5  23137852.396    23137859.806          11.250
        10.500
 99  3  2 17 23 15.0010000  0  7G27G13G 7G 2G18G19G31
 -11874199.655 6 -10138206.361 6  21126446.786    21126452.493          18.250
        21.000
 -12540281.565 6  -9771655.422 6  21032211.716    21032216.060          16.750
        22.750
   -778980.774 4   -606996.320 5  24007917.841    24007928.048           6.250
         8.000
  -6893451.908 6  -5371518.744 6  22020378.208    22020384.903          19.750
        19.250
  22794925.963 5  17777999.171 5  23752349.747    23752358.892           9.000
         9.250
   5303927.810 6   4142598.809 6  21555378.927    21555385.220          18.500
        17.750
   2580045.281 5   2028210.090 5  23149090.731    23149098.337          11.250
        10.750
 99  3  2 17 23 30.0010000  0  7G27G13G 7G 2G18G19G31
 -11874634.379 6 -10138545.117 6  21126364.099    21126369.899          18.250
        21.250
 -12515664.019 6  -9752472.939 6  21036896.325    21036900.591          16.750
        22.500
   -810831.880 4   -631815.305 5  24001856.435    24001866.646           6.250
         8.000
  -6889216.601 7  -5368218.502 6  22021184.239    22021190.978          20.000
        19.250
  22870533.446 5  17836913.966 5  23766737.591    23766746.876           9.000
         9.250
   5342646.801 6   4172769.427 6  21562746.950    21562753.286          18.500
        17.750
   2639215.311 5   2074316.566 5  23160350.247    23160357.911          11.250
        10.500
 99  3  2 17 23 45.0010000  0  7G27G13G 7G 2G18G19G31
 -11875010.368 6 -10138838.103 6  21126292.583    21126298.220          18.250
        21.250
 -12490899.890 6  -9733176.228 6  21041608.755    21041613.134          17.000
        22.500
   -842645.097 4   -656604.772 5  23995802.622    23995813.017           6.250
         8.250
  -6884924.093 7  -5364873.684 6  22022001.013    22022007.626          20.250
        19.250
  22946180.896 5  17895859.916 5  23781132.669    23781141.513           8.750
         9.000
   5381441.896 6   4202999.340 6  21570129.286    21570135.528          18.500
        17.500
   2698494.414 5   2120508.032 5  23171631.263    23171638.974          11.250
        10.750
 99  3  2 17 24  0.0010000  0  7G27G13G 7G 2G18G19G31
 -11875322.796 6 -10139081.568 6  21126233.153    21126238.692          18.500
        21.000
 -12465988.980 6  -9713765.152 6  21046349.224    21046353.560          17.000
        22.500
   -874418.025 4   -681362.835 5  23989756.216    23989766.774           6.250
         8.250
  -6880568.900 7  -5361480.026 6  22022829.794    22022836.345          20.250
        19.250
  23021870.422 5  17954838.654 5  23795536.380    23795545.626           8.750
         9.250
   5420316.164 6   4233290.954 6  21577527.106    21577533.380          18.750
        17.500
   2757886.062 5   2166787.195 5  23182932.794    23182940.356          11.000
        10.500
 99  3  2 17 24 15.0010000  0  7G27G13G 7G 2G18G19G31
 -11875576.873 6 -10139279.557 6  21126184.817    21126190.384          18.500
        21.000
 -12440935.219 6  -9694242.752 6  21051116.708    21051121.060          17.000
        22.500
   -906155.337 4   -706093.155 5  23983717.239    23983727.177           6.250
         8.250
  -6876153.807 7  -5358039.696 6  22023669.919    22023676.603          20.250
        19.500
  23097598.583 5  18013847.490 5  23809946.856    23809955.782           8.750
         9.000
   5459266.756 6   4263642.033 6  21584938.981    21584945.216          18.750
        17.500
   2817386.355 5   2213151.011 5  23194255.388    23194263.153          11.000
        10.500
 99  3  2 17 24 30.0010000  0  7G27G13G 7G 2G18G19G31
 -11875767.983 6 -10139428.483 6  21126148.458    21126154.146          18.500
        21.000
 -12415730.466 6  -9674602.705 6  21055913.146    21055917.423          17.000
        22.500
   -937851.974 4   -730791.765 5  23977685.310    23977695.560           6.250
         8.000
  -6871673.067 7  -5354548.209 6  22024522.653    22024529.353          20.250
        19.250
  23173370.109 5  18072890.129 5  23824365.692    23824375.263           8.500
         9.250
   5498301.822 6   4294058.938 6  21592367.036    21592373.411          18.750
        17.500
   2877001.165 5   2259604.062 5  23205599.661    23205607.497          11.000
        10.500
 99  3  2 17 24 45.0010000  0  7G27G13G 7G 2G18G19G31
 -11875901.512 6 -10139532.535 6  21126123.052    21126128.739          18.750
        21.000
 -12390377.494 6  -9654847.160 6  21060737.591    21060741.907          17.000
        22.250
   -969515.436 4   -755464.519 5  23971659.833    23971670.021           6.500
         8.250
  -6867131.915 7  -5351009.648 6  22025386.802    22025393.466          20.250
        19.250
  23249176.332 5  18131959.793 5  23838791.653    23838800.356           8.750
         9.000
   5537416.759 6   4324538.079 6  21599810.685    21599816.974          18.750
        17.500
   2936725.602 5   2306142.540 5  23216965.005    23216972.743          11.000
        10.500
 99  3  2 17 25  0.0010000  0  7G27G13G 7G 2G18G19G31
 -11875978.653 6 -10139592.659 6  21126108.380    21126113.985          18.750
        21.000
 -12364876.898 6  -9634976.580 6  21065590.317    21065594.556          17.000
        22.250
  -1001144.801 4   -780110.722 5  23965641.200    23965651.169           6.500
         8.250
  -6862528.416 7  -5347422.503 6  22026262.685    22026269.376          20.500
        19.250
  23325013.877 5  18191053.854 5  23853222.888    23853232.435           8.250
         9.250
   5576613.973 6   4355081.344 6  21607269.560    21607275.860          18.750
        17.500
   2996559.807 5   2352766.555 5  23228351.028    23228358.728          10.750
        10.500
 99  3  2 17 25 15.0010000  0  7G27G13G 7G 2G18G19G31
 -11875997.878 6 -10139607.651 6  21126104.677    21126110.337          18.750
        21.000
 -12339224.403 6  -9614987.635 6  21070471.817    21070476.028          17.000
        22.250
  -1032737.223 4   -804728.136 5  23959629.099    23959639.345           6.500
         8.250
  -6857861.232 7  -5343785.733 6  22027150.950    22027157.563          20.500
        19.500
  23400880.931 5  18250170.919 5  23867660.044    23867669.388           8.250
         9.000
   5615894.287 6   4385689.346 6  21614744.458    21614750.747          18.750
        17.500
   3056506.783 5   2399478.426 5  23239758.489    23239766.224          10.750
        10.500
 99  3  2 17 25 30.0010000  0  7G27G13G 7G 2G18G19G31
 -11875960.284 6 -10139578.366 6  21126111.958    21126117.462          18.750
        21.000
 -12313423.673 6  -9594883.190 6  21075381.591    21075385.720          17.000
        22.000
  -1064298.755 4   -829321.467 5  23953623.364    23953633.435           6.500
         8.250
  -6853136.408 7  -5340104.047 6  22028050.114    22028056.872          20.500
        19.500
  23476774.684 5  18309308.785 5  23882102.271    23882111.431           8.250
         9.000
   5655254.642 6   4416359.728 6  21622234.505    21622240.853          18.750
        17.500
   3116565.724 5   2446277.557 5  23251187.677    23251195.509          10.750
        10.250
 99  3  2 17 25 45.0010000  0  7G27G13G 7G 2G18G19G31
 -11875867.005 6 -10139505.688 6  21126129.708    21126135.333          18.750
        21.000
 -12287477.130 6  -9574665.110 6  21080319.052    21080323.204          17.250
        22.250
  -1095833.472 4   -853893.910 5  23947622.286    23947632.356           6.750
         8.250
  -6848356.454 7  -5336379.404 6  22028959.747    22028966.356          20.750
        19.500
  23552693.108 5  18368465.883 5  23896548.997    23896558.376           8.000
         9.000
   5694694.911 6   4447092.380 6  21629739.747    21629746.063          18.750
        17.500
   3176734.205 5   2493162.049 5  23262637.521    23262645.146          10.750
        10.250
 99  3  2 17 26  0.0010000  0  7G27G13G 7G 2G18G19G31
 -11875711.194 6 -10139384.282 6  21126159.356    21126165.013          18.750
        21.000
 -12261378.875 6  -9554328.826 6  21085285.356    21085289.493          17.250
        22.250
  -1127337.094 4   -878442.134 5  23941627.474    23941637.618           6.500
         8.250
  -6843515.718 7  -5332607.403 6  22029880.950    22029887.524          20.750
        19.500
  23628640.772 5  18427645.760 5  23911001.716    23911010.880           8.000
         9.000
   5734222.004 6   4477892.678 6  21637261.528    21637267.896          18.500
        17.500
   3237016.587 5   2540135.279 5  23274108.872    23274116.638          10.750
        10.250
 99  3  2 17 26 15.0010000  0  7G27G13G 7G 2G18G19G31
 -11875493.181 6 -10139214.417 6  21126200.950    21126206.478          18.750
        21.000
 -12235129.306 6  -9533874.634 6  21090280.552    21090284.661          17.250
        22.250
  -1158811.232 4   -902967.369 5  23935638.130    23935648.282           6.750
         8.250
  -6838614.818 7  -5328788.522 6  22030813.544    22030820.122          21.000
        19.500
  23704616.899 5  18486847.802 5  23925459.396    23925468.399           8.000
         8.750
   5773836.349 6   4508760.975 6  21644799.802    21644806.192          18.500
        17.500
   3297409.792 5   2587194.879 5  23285601.278    23285609.153          10.750
        10.000
 99  3  2 17 26 30.0010000  0  7G27G13G 7G 2G18G19G31
 -11875204.577 6 -10138989.536 6  21126255.708    21126261.302          18.750
        21.000
 -12208722.209 6  -9513297.688 6  21095305.692    21095309.782          17.250
        22.250
  -1190246.835 4   -927462.581 5  23929656.255    23929665.985           6.750
         8.250
  -6833649.124 7  -5324919.139 6  22031758.481    22031765.056          21.000
        19.750
  23780627.970 5  18546077.098 5  23939923.786    23939933.778           7.750
         9.250
   5813544.586 6   4539702.432 6  21652356.231    21652362.716          18.500
        17.500
   3357918.752 5   2634344.671 5  23297115.661    23297123.407          10.500
        10.000
 99  3  2 17 26 45.0010000  0  7G27G13G 7G 2G18G19G31
 -11874857.573 6 -10138719.156 6  21126321.786    21126327.333          19.000
        21.000
 -12182175.457 6  -9492611.926 6  21100357.356    21100361.466          17.000
        22.250
  -1221657.010 4   -951937.972 5  23923678.606    23923688.978           6.750
         8.250
  -6828634.019 7  -5321011.263 6  22032712.810    22032719.415          21.000
        19.750
  23856661.706 5  18605324.034 5  23954393.146    23954402.017           8.000
         8.750
   5853330.544 6   4570704.454 6  21659927.153    21659933.509          18.750
        17.750
   3418527.183 5   2681571.972 5  23308648.888    23308656.841          10.500
        10.000
 99  3  2 17 27  0.0010000  0  7G27G13G 7G 2G18G19G31
 -11874452.647 6 -10138403.645 6  21126398.856    21126404.399          18.750
        21.000
 -12155491.639 6  -9471819.354 6  21105435.075    21105439.263          17.000
        22.250
  -1253043.975 4   -976395.279 5  23917705.778    23917715.681           7.250
         8.500
  -6823568.155 7  -5317063.837 6  22033676.778    22033683.446          21.000
        19.750
  23932722.084 5  18664591.745 5  23968866.466    23968876.212           7.750
         9.250
   5893192.597 6   4601765.764 6  21667512.622    21667519.149          18.500
        17.750
   3479232.986 5   2728875.154 5  23320200.856    23320208.669          10.500
        10.000
 99  3  2 17 27 15.0010000  0  7G27G13G 7G 2G18G19G31
 -11873987.407 6 -10138041.124 6  21126487.349    21126492.962          18.750
        21.000
 -12128672.900 6  -9450921.657 6  21110538.536    21110542.786          17.000
        22.250
  -1284407.940 4  -1000834.686 5  23911737.427    23911747.501           7.250
         8.500
  -6818451.739 7  -5313077.019 6  22034650.489    22034657.036          21.250
        19.750
  24008812.919 5  18723883.161 5  23983346.591    23983355.610           7.750
         8.750
   5933129.361 6   4632885.293 6  21675112.396    21675118.747          18.500
        17.750
   3540035.506 5   2776253.689 5  23331771.411    23331779.313          10.500
        10.000
 99  3  2 17 27 30.0010000  0  7G27G13G 7G 2G18G19G31
 -11873463.096 6 -10137632.581 6  21126587.106    21126592.677          18.750
        21.000
 -12101723.176 6  -9429921.888 6  21115666.903    21115671.114          17.000
        22.250
  -1315753.823 4  -1025259.993 5  23905772.591    23905782.474           7.000
         8.250
  -6813290.052 7  -5309054.922 6  22035632.638    22035639.349          21.250
        19.750
  24084935.059 5  18783199.003 5  23997832.341    23997841.548           7.750
         9.000
   5973136.005 6   4664059.271 6  21682725.560    21682732.087          18.500
        17.750
   3600932.470 5   2823705.826 5  23343359.810    23343367.478          10.500
         9.750
 99  3  2 17 27 45.0010000  0  7G27G13G 7G 2G18G19G31
 -11872874.686 6 -10137174.086 6  21126699.060    21126704.649          18.750
        21.000
 -12074639.559 6  -9408817.781 6  21120820.716    21120824.923          16.750
        22.250
  -1347077.294 4  -1049667.821 5  23899811.802    23899822.079           7.250
         8.500
  -6808075.510 7  -5304991.638 6  22036624.942    22036631.571          21.000
        19.750
  24161096.149 5  18842545.173 5  24012324.935    24012334.606           7.750
         9.000
   6013214.982 6   4695289.618 6  21690352.138    21690358.532          18.500
        17.750
   3661927.238 5   2871234.171 5  23354966.677    23354974.595          10.500
         9.750
 99  3  2 17 28  0.0010000  0  7G27G13G 7G 2G18G19G31
 -11872223.911 6 -10136667.002 6  21126822.989    21126828.528          18.750
        21.000
 -12047424.431 6  -9387611.208 6  21125999.513    21126003.798          17.000
        22.500
  -1378378.998 4  -1074058.710 5  23893855.403    23893865.411           7.250
         8.500
  -6802810.472 7  -5300889.009 6  22037626.856    22037633.501          21.250
        20.000
  24237292.623 5  18901918.936 5  24026825.247    24026834.146           7.750
         8.750
   6053362.223 6   4726573.154 6  21697991.763    21697998.349          18.250
        17.500
   3723014.286 5   2918834.430 5  23366591.052    23366598.794          10.500
         9.750
 99  3  2 17 28 15.0010000  0  7G27G13G 7G 2G18G19G31
 -11871510.652 6 -10136111.219 6  21126958.724    21126964.329          18.750
        21.000
 -12020077.958 6  -9366302.278 6  21131203.411    21131207.700          17.000
        22.500
  -1409658.106 4  -1098431.982 5  23887902.997    23887913.009           7.250
         8.500
  -6797496.332 7  -5296748.119 6  22038638.067    22038644.646          21.250
        20.000
  24313523.431 5  18961319.432 5  24041331.310    24041341.087           7.500
         9.000
   6093573.437 6   4757906.542 6  21705643.888    21705650.399          18.000
        17.500
   3784194.292 5   2966507.115 5  23378233.067    23378241.310          10.250
         9.750
 99  3  2 17 28 30.0010000  0  7G27G13G 7G 2G18G19G31
 -11870736.031 6 -10135507.633 6  21127106.130    21127111.778          18.750
        21.000
 -11992600.315 6  -9344891.145 6  21136432.294    21136436.563          16.750
        22.250
  -1440913.509 5  -1122786.793 5  23881955.224    23881965.247           7.500
         8.750
  -6792133.012 7  -5292568.915 6  22039658.677    22039665.306          21.250
        20.000
  24389790.301 5  19020748.045 5  24055844.513    24055854.063           7.500
         8.750
   6133847.998 6   4789289.285 6  21713307.942    21713314.466          18.000
        17.500
   3845469.095 5   3014253.666 5  23389893.669    23389901.466          10.250
         9.750
 99  3  2 17 28 45.0010000  0  7G27G13G 7G 2G18G19G31
 -11869901.451 6 -10134857.325 6  21127264.981    21127270.505          18.750
        21.000
 -11964988.981 6  -9323375.837 6  21141686.552    21141690.833          16.750
        22.250
  -1472142.235 5  -1147120.807 5  23876012.278    23876022.431           7.500
         8.500
  -6786718.721 7  -5288349.986 6  22040688.958    22040695.517          21.500
        20.000
  24466095.475 5  19080206.492 5  24070365.294    24070374.696           7.500
         8.750
   6174184.975 6   4820720.666 6  21720983.567    21720990.204          18.000
        17.500
   3906841.192 5   3062076.037 5  23401572.177    23401580.263          10.000
         9.750
 99  3  2 17 29  0.0010000  0  7G27G13G 7G 2G18G19G31
 -11869003.193 6 -10134157.397 6  21127435.771    21127441.392          19.000
        20.750
 -11937234.967 6  -9301749.349 6  21146967.911    21146972.286          16.750
        22.250
  -1503339.477 5  -1171430.298 5  23870075.958    23870086.060           7.500
         8.750
  -6781246.953 7  -5284086.273 6  22041730.208    22041736.782          21.500
        20.000
  24542444.742 4  19139699.296 5  24084893.458    24084903.521           7.250
         8.750
   6214588.640 6   4852204.011 6  21728672.224    21728678.774          18.000
        17.500
   3968317.439 5   3109979.559 5  23413270.708    23413278.755          10.000
         9.500
 99  3  2 17 29 15.0010000  0  7G27G13G 7G 2G18G19G31
 -11868044.448 6 -10133410.330 6  21127618.349    21127623.958          18.750
        21.000
 -11909337.809 6  -9280011.319 6  21152276.599    21152280.970          16.750
        22.500
  -1534503.972 5  -1195714.266 5  23864145.427    23864155.368           7.500
         8.500
  -6775719.843 7  -5279779.429 6  22042782.036    22042788.618          21.500
        20.000
  24618833.513 5  19199222.879 5  24099429.833    24099439.962           7.500
         8.750
   6255060.409 6   4883740.427 6  21736373.739    21736380.317          17.750
        17.500
   4029898.607 5   3157964.845 5  23424989.614    23424997.341          10.250
         9.500
 99  3  2 17 29 30.0010000  0  7G27G13G 7G 2G18G19G31
 -11867026.533 6 -10132617.160 6  21127811.935    21127817.528          18.750
        21.000
 -11881295.075 6  -9258159.852 6  21157612.966    21157617.333          16.750
        22.750
  -1565631.713 5  -1219969.584 5  23858222.341    23858232.259           7.750
         8.500
  -6770139.410 7  -5275431.033 6  22043843.919    22043850.442          21.500
        20.000
  24695258.074 5  19258774.344 5  24113973.075    24113982.821           7.500
         8.750
   6295600.756 6   4915330.287 6  21744088.544    21744095.114          17.750
        17.250
   4091585.399 5   3206032.432 5  23436727.841    23436736.013          10.000
         9.500
 99  3  2 17 29 45.0010000  0  7G27G13G 7G 2G18G19G31
 -11865953.530 6 -10131781.063 6  21128016.239    21128021.872          18.750
        21.250
 -11853105.867 6  -9236194.256 6  21162977.122    21162981.583          16.500
        22.500
  -1596723.894 4  -1244197.222 5  23852305.403    23852315.126           7.250
         8.750
  -6764506.898 7  -5271042.063 6  22044915.771    22044922.274          21.500
        20.250
  24771712.879 5  19318349.385 5  24128522.450    24128532.134           8.000
         9.000
   6336209.321 6   4946973.293 6  21751816.075    21751822.575          18.000
        17.500
   4153374.370 5   3254179.637 5  23448486.231    23448494.192          10.000
         9.500
 99  3  2 17 30  0.0010000  0  7G27G13G 7G 2G18G19G31
 -11864827.923 6 -10130903.978 6  21128230.505    21128236.103          18.750
        21.250
 -11824769.735 6  -9214114.168 6  21168369.255    21168373.735          16.500
        22.500
  -1627780.983 5  -1268397.495 5  23846395.411    23846405.380           7.500
         8.750
  -6758824.979 7  -5266614.594 6  22045997.028    22046003.618          21.500
        20.250
  24848192.223 5  19377943.545 5  24143075.958    24143085.489           8.000
         9.000
   6376886.698 6   4978669.922 6  21759556.700    21759563.321          17.500
        17.000
   4215261.605 5   3302403.408 5  23460263.005    23460271.110          10.000
        10.000
 99  3  2 17 30 15.0010000  0  7G27G13G 7G 2G18G19G31
 -11863648.324 6 -10129984.820 6  21128454.833    21128460.501          18.750
        21.000
 -11796283.263 6  -9191916.935 6  21173790.224    21173794.657          16.500
        23.000
  -1658801.382 5  -1292569.197 5  23840492.521    23840502.099           7.750
         8.750
  -6753095.619 7  -5262150.161 6  22047087.106    22047093.681          21.500
        20.250
  24924695.253 4  19437556.194 5  24157634.489    24157643.923           7.250
         7.750
   6417636.244 6   5010422.781 6  21767310.919    21767317.474          17.500
        17.000
   4277248.083 5   3350704.513 5  23472058.825    23472066.712          10.250
         9.500
 99  3  2 17 30 30.0010000  0  7G27G13G 7G 2G18G19G31
 -11862413.005 6 -10129022.241 6  21128690.005    21128695.591          19.000
        21.250
 -11767644.006 6  -9169600.650 6  21179240.083    21179244.563          16.750
        23.000
  -1689782.025 4  -1316709.895 5  23834596.778    23834606.853           7.250
         8.250
  -6747316.837 7  -5257647.213 6  22048186.794    22048193.384          21.500
        20.250
  25001223.604 5  19497188.530 5  24172197.622    24172206.774           7.500
         8.000
   6458461.902 6   5042234.958 6  21775079.841    21775086.454          17.500
        17.000
   4339338.473 5   3399086.594 5  23483874.403    23483882.044          10.250
         9.500
 99  3  2 17 30 45.0010000  0  7G27G13G 7G 2G18G19G31
 -11861123.953 6 -10128017.799 6  21128935.294    21128940.978          18.750
        21.250
 -11738857.365 6  -9147169.524 6  21184718.036    21184722.458          16.750
        23.000
  -1720726.628 5  -1340822.516 5  23828708.403    23828718.067           7.750
         9.250
  -6741491.929 7  -5253108.325 6  22049295.403    22049302.009          21.500
        20.250
  25077771.138 5  19556835.842 5  24186763.692    24186773.435           7.750
         8.500
   6499362.610 6   5074105.620 6  21782862.974    21782869.610          17.250
        17.250
   4401526.529 5   3447544.775 5  23495708.294    23495716.200          10.250
         9.500
 99  3  2 17 31  0.0010000  0  7G27G13G 7G 2G18G19G31
 -11859773.720 6 -10126965.670 6  21129192.231    21129197.849          18.750
        21.250
 -11709917.426 6  -9124618.938 6  21190225.106    21190229.544          16.750
        23.000
  -1751627.279 5  -1364900.906 5  23822828.021    23822837.485           8.500
         8.250
  -6735616.998 7  -5248530.454 6  22050413.317    22050419.958          21.500
        20.250
  25154340.200 5  19616499.904 5  24201334.731    24201344.313           7.750
         8.750
   6540346.594 6   5106041.162 6  21790661.974    21790668.712          17.000
        17.000
   4463816.616 5   3496082.450 5  23507561.771    23507569.575          10.000
         9.500
 99  3  2 17 31 15.0010000  0  7G27G13G 7G 2G18G19G31
 -11858362.085 6 -10125865.705 6  21129460.919    21129466.591          18.750
        21.250
 -11680829.229 6  -9101952.829 6  21195760.427    21195764.935          16.750
        23.000
  -1782488.704 5  -1388948.733 5  23816955.224    23816964.962           8.000
         8.750
  -6729694.141 7  -5243915.251 6  22051540.356    22051546.911          21.500
        20.000
  25230924.436 5  19676175.805 5  24215907.981    24215918.001           7.750
         8.750
   6581412.984 6   5138040.916 6  21798476.614    21798483.407          17.000
        17.000
   4526203.122 5   3544695.274 5  23519433.856    23519441.532          10.250
         9.750
 99  3  2 17 31 30.0010000  0  7G27G13G 7G 2G18G19G31
 -11856884.445 6 -10124714.310 6  21129742.114    21129747.837          18.750
        21.000
 -11651588.691 6  -9079168.015 6  21201324.724    21201329.204          16.500
        22.750
  -1813307.558 5  -1412963.388 5  23811090.599    23811100.673           8.000
         9.000
  -6723718.714 7  -5239259.073 6  22052677.419    22052683.931          21.500
        20.000
  25307526.057 5  19735865.239 5  24230485.411    24230494.970           7.500
         8.500
   6622565.057 6   5170107.442 6  21806307.560    21806314.399          16.750
        17.000
   4588687.854 5   3593384.647 5  23531323.802    23531331.868          10.000
         9.500
 99  3  2 17 31 45.0010000  0  7G27G13G 7G 2G18G19G31
 -11855336.323 6 -10123507.981 6  21130036.653    21130042.313          18.750
        21.000
 -11622193.254 6  -9056262.497 6  21206918.489    21206922.954          16.750
        22.750
  -1844084.120 5  -1436945.100 5  23805233.974    23805243.911           8.000
         9.000
  -6717684.488 7  -5234557.078 6  22053825.677    22053832.259          21.500
        20.000
  25384148.724 4  19795571.091 5  24245065.950    24245075.286           7.250
         7.500
   6663802.948 6   5202240.833 6  21814154.872    21814161.642          17.250
        16.750
   4651271.988 5   3642151.448 5  23543233.231    23543241.247          10.000
         9.000
 99  3  2 17 32  0.0010000  0  7G27G13G 7G 2G18G19G31
 -11853718.952 6 -10122247.705 6  21130344.356    21130350.021          18.500
        21.000
 -11592648.634 6  -9033240.737 6  21212540.567    21212545.083          16.500
        22.750
  -1874823.488 5  -1460897.802 5  23799384.497    23799394.196           8.250
         8.250
  -6711592.291 7  -5229809.918 6  22054984.974    22054991.470          21.250
        19.750
  25460791.129 4  19855292.294 5  24259650.356    24259660.372           7.250
         8.000
   6705123.811 6   5234438.876 6  21822018.060    21822024.708          17.250
        16.500
   4713953.443 5   3690994.095 5  23555161.411    23555168.583          10.250
         8.750
 99  3  2 17 32 15.0010000  0  7G27G13G 7G 2G18G19G31
 -11852032.058 6 -10120933.248 6  21130665.349    21130671.126          18.500
        21.000
 -11562957.319 6  -9010104.661 6  21218190.630    21218195.231          16.500
        22.750
  -1905526.670 5  -1484822.316 5  23793541.638    23793551.735           8.250
         8.750
  -6705441.781 7  -5225017.308 6  22056155.341    22056162.009          21.250
        19.750
  25537452.737 4  19915028.487 5  24274239.185    24274248.681           7.000
         7.750
   6746526.504 6   5266700.692 6  21829896.880    21829903.501          17.250
        16.750
   4776733.483 5   3739913.566 5  23567107.692    23567115.521          10.000
         9.000
 99  3  2 17 32 30.0010000  0  7G27G13G 7G 2G18G19G31
 -11850278.695 6 -10119567.000 6  21130998.989    21131004.681          18.500
        20.750
 -11533124.907 6  -8986858.654 6  21223867.560    21223872.099          16.500
        22.750
  -1936195.206 5  -1508719.852 5  23787705.638    23787715.181           8.250
         9.000
  -6699234.832 7  -5220180.727 6  22057336.380    22057342.911          21.250
        19.500
  25614133.445 4  19974779.557 5  24288830.700    24288840.626           6.750
         8.000
   6788009.716 6   5299025.244 6  21837790.802    21837797.423          17.500
        16.500
   4839610.983 5   3788908.979 5  23579073.474    23579080.892          10.000
         9.000
 99  3  2 17 32 45.0010000  0  7G27G13G 7G 2G18G19G31
 -11848459.519 6 -10118149.463 6  21131345.192    21131350.938          18.500
        21.000
 -11503154.663 6  -8963505.233 6  21229570.731    21229575.353          16.750
        22.500
  -1966830.378 5  -1532591.375 5  23781875.763    23781885.903           8.500
         8.750
  -6692971.776 7  -5215300.424 6  22058528.146    22058534.767          21.250
        19.500
  25690832.306 4  20034544.772 5  24303426.575    24303436.071           7.000
         8.000
   6829574.071 6   5331413.027 6  21845700.286    21845706.931          17.500
        16.500
   4902582.750 5   3837977.838 5  23591056.614    23591064.196          10.000
         9.000
 99  3  2 17 33  0.0010000  0  7G27G13G 7G 2G18G19G31
 -11846575.625 6 -10116681.504 6  21131703.591    21131709.481          18.500
        21.000
 -11473047.114 6  -8940044.829 6  21235300.028    21235304.657          16.750
        22.750
  -1997431.826 5  -1556436.630 5  23776052.700    23776062.606           8.250
         9.250
  -6686654.580 7  -5210377.936 6  22059730.333    22059736.825          21.500
        19.750
  25767549.802 4  20094324.500 5  24318024.786    24318035.372           7.250
         8.250
   6871219.732 6   5363864.161 6  21853625.247    21853631.989          16.750
        16.500
   4965644.278 5   3887116.659 5  23603056.411    23603063.970           9.750
         9.000
 99  3  2 17 33 15.0010000  0  7G27G13G 7G 2G18G19G31
 -11844627.181 6 -10115163.248 6  21132074.396    21132080.200          18.500
        21.000
 -11442800.932 6  -8916476.401 6  21241055.700    21241060.255          16.750
        22.750
  -2028000.490 5  -1580256.327 5  23770235.591    23770245.696           8.250
         9.500
  -6680281.780 7  -5205412.123 6  22060943.271    22060949.696          21.250
        19.750
  25844289.711 4  20154121.696 5  24332628.442    24332638.431           7.250
         8.000
   6912946.200 6   5396378.267 6  21861565.372    21861572.040          17.000
        16.250
   5028798.169 5   3936327.438 5  23615074.356    23615081.915          10.000
         8.750
 99  3  2 17 33 30.0010000  0  7G27G13G 7G 2G18G19G31
 -11842618.678 6 -10113598.181 6  21132456.692    21132462.356          18.500
        21.000
 -11412418.412 6  -8892801.733 6  21246837.364    21246841.919          17.000
        22.500
  -2058542.824 5  -1604055.511 5  23764423.380    23764433.321           8.000
         9.250
  -6673856.969 7  -5200405.777 6  22062165.755    22062172.255          21.250
        19.750
  25921051.841 4  20213936.194 5  24347235.966    24347245.579           7.250
         7.750
   6954747.552 6   5428950.717 6  21869519.950    21869526.688          17.000
        16.250
   5092043.365 5   3985609.359 5  23627109.560    23627117.036          10.250
         8.750
 99  3  2 17 33 45.0020000  0  7G27G13G 7G 2G18G19G31
 -11840551.131 6 -10111987.112 6  21132850.205    21132855.928          18.500
        21.000
 -11381897.677 6  -8869019.359 6  21252645.275    21252649.814          16.750
        22.500
  -2089059.016 5  -1627834.330 5  23758616.432    23758626.139           8.500
         9.750
  -6667381.138 7  -5195359.668 6  22063398.064    22063404.650          21.000
        19.500
  25997843.832 4  20273773.992 5  24361849.330    24361859.436           6.750
         7.250
   6996627.370 6   5461584.318 6  21877489.697    21877496.275          17.500
        16.500
   5155385.518 5   4034966.840 5  23639163.619    23639171.146          10.250
         9.000
 99  3  2 17 34  0.0020000  0  7G27G13G 7G 2G18G19G31
 -11838416.790 6 -10110323.999 6  21133256.135    21133261.924          18.500
        21.000
 -11351241.253 6  -8845131.259 6  21258479.104    21258483.619          17.000
        22.250
  -2119538.775 5  -1651584.746 5  23752816.205    23752826.014           8.750
         9.000
  -6660854.991 7  -5190274.365 6  22064639.994    22064646.525          21.000
        19.500
  26074660.120 4  20333630.682 5  24376467.104    24376476.553           6.750
         7.250
   7038585.377 6   5494278.840 6  21885474.025    21885480.717          17.500
        16.500
   5218819.055 5   4084395.502 5  23651234.150    23651241.752          10.000
         8.250
 99  3  2 17 34 15.0020000  0  7G27G13G 7G 2G18G19G31
 -11836215.732 6 -10108608.891 6  21133675.127    21133680.869          18.500
        21.250
 -11320446.226 6  -8821135.157 6  21264339.221    21264343.717          17.000
        22.500
  -2149980.805 5  -1675305.769 5  23747023.494    23747033.791           8.750
        10.000
  -6654281.558 7  -5185152.205 6  22065890.908    22065897.451          21.250
        20.000
  26151506.354 4  20393510.715 5  24391089.846    24391100.291           6.750
         7.250
   7080625.422 6   5527037.286 6  21893474.166    21893480.744          17.500
        16.500
   5282346.721 5   4133897.555 5  23663323.385    23663330.678          10.000
         8.250
 99  3  2 17 34 30.0020000  0  7G27G13G 7G 2G18G19G31
 -11833951.343 6 -10106844.438 6  21134106.072    21134111.842          18.500
        21.000
 -11289517.240 6  -8797034.672 6  21270224.799    21270229.350          16.750
        22.250
  -2180385.694 5  -1698997.829 5  23741237.721    23741247.377           8.500
         9.250
  -6647667.634 7  -5179998.501 6  22067149.455    22067156.084          20.750
        20.000
  26228378.544 4  20453410.972 5  24405718.939    24405728.682           7.250
         7.750
   7122742.336 6   5559855.635 6  21901488.572    21901495.143          17.500
        16.250
   5345960.320 5   4183466.542 5  23675428.354    23675436.025           9.750
         8.500
 99  3  2 17 34 45.0020000  0  7G27G13G 7G 2G18G19G31
 -11831621.795 6 -10105029.207 6  21134549.400    21134555.174          18.500
        21.250
 -11258452.538 6  -8772828.420 6  21276136.244    21276140.791          16.750
        22.250
  -2210752.511 5  -1722660.256 5  23735458.900    23735468.854           8.500
         9.250
  -6641011.089 7  -5174811.580 6  22068416.064    22068422.807          21.000
        19.750
  26305276.977 4  20513331.703 5  24420351.916    24420362.225           7.250
         7.000
   7164936.086 6   5592733.853 6  21909517.760    21909524.381          17.500
        16.250
   5409657.932 5   4233101.001 5  23687549.416    23687557.611           9.500
         8.750
 99  3  2 17 35  0.0020000  0  7G27G13G 7G 2G18G19G31
 -11829223.242 6 -10103160.214 6  21135005.752    21135011.572          18.500
        21.000
 -11227245.930 6  -8748511.611 6  21282074.666    21282079.186          17.000
        22.000
  -2241079.339 5  -1746291.511 5  23729687.947    23729697.631           8.750
         9.000
  -6634307.426 7  -5169587.943 6  22069691.572    22069698.248          20.500
        20.000
  26382201.581 4  20573272.799 5  24434990.697    24435000.494           7.250
         7.500
   7207205.790 6   5625671.255 6  21917561.619    21917568.119          18.000
        16.250
   5473440.712 5   4282801.820 5  23699687.002    23699695.061           9.250
         8.500
 99  3  2 17 35 15.0020000  0  7G27G13G 7G 2G18G19G31
 -11826748.586 6 -10101231.915 6  21135476.635    21135482.420          18.500
        21.000
 -11195888.156 6  -8724077.008 6  21288041.893    21288046.334          17.000
        22.000
  -2271358.029 5  -1769885.258 5  23723926.002    23723935.689           9.000
         8.750
  -6627546.391 7  -5164319.598 6  22070978.158    22070984.982          20.250
        20.000
  26459161.414 5  20633241.371 5  24449635.775    24449645.514           7.500
         7.250
   7249556.927 6   5658672.112 6  21925620.705    21925627.225          18.000
        16.250
   5537320.335 5   4332578.102 5  23711843.143    23711851.361           9.500
         8.500
 99  3  2 17 35 30.0020000  0  7G27G13G 7G 2G18G19G31
 -11824205.529 6 -10099250.317 6  21135960.400    21135966.494          18.250
        21.250
 -11164386.753 6  -8699530.480 6  21294036.377    21294040.885          16.750
        22.500
  -2301597.880 5  -1793448.729 5  23718171.150    23718181.115           8.250
         9.250
  -6620734.804 7  -5159011.874 6  22072274.393    22072281.197          20.500
        20.000
  26536146.809 4  20693229.867 5  24464286.463    24464296.553           6.750
         7.250
   7291978.854 6   5691728.138 6  21933693.502    21933700.045          17.750
        16.250
   5601289.955 5   4382424.534 5  23724015.916    23724024.201           9.500
         8.750
 99  3  2 17 35 45.0020000  0  7G27G13G 7G 2G18G19G31
 -11821586.130 6 -10097209.228 6  21136459.018    21136464.787          18.500
        21.500
 -11132735.420 6  -8674867.130 6  21300059.533    21300064.025          17.250
        23.000
  -2331789.462 5  -1816974.603 5  23712426.182    23712435.979           9.000
        10.250
  -6613865.716 7  -5153659.329 6  22073581.619    22073588.182          21.000
        20.250
  26613159.760 4  20753239.771 5  24478940.604    24478949.916           6.750
         7.750
   7334479.043 6   5724845.133 6  21941781.127    21941787.471          18.250
        17.000
   5665352.454 5   4432343.309 5  23736207.025    23736214.721           9.750
         8.500
 99  3  2 17 36  0.0020000  0  7G27G13G 7G 2G18G19G31
 -11818883.118 6 -10095102.983 6  21136973.330    21136979.135          18.500
        21.500
 -11100929.835 6  -8650083.570 6  21306111.955    21306116.412          17.000
        23.250
  -2361922.660 5  -1840454.970 5  23706692.275    23706701.873           9.000
        10.500
  -6606931.208 7  -5148255.811 6  22074901.252    22074907.885          20.500
        20.000
  26690202.728 4  20813273.105 5  24493600.580    24493612.471           6.750
         8.250
   7377062.075 6   5758026.686 6  21949884.424    21949890.943          18.250
        17.000
   5729509.606 5   4482335.865 5  23748415.682    23748423.697           9.750
         8.750
 99  3  2 17 36 15.0020000  0  7G27G13G 7G 2G18G19G31
 -11816100.865 6 -10092934.992 6  21137502.885    21137508.725          18.500
        22.000
 -11068969.233 6  -8625179.232 6  21312193.791    21312198.271          17.000
        23.250
  -2391999.848 5  -1863891.701 5  23700968.447    23700978.326           9.000
        10.750
  -6599929.593 7  -5142800.001 6  22076233.689    22076240.264          20.500
        20.250
  26767274.586 4  20873328.957 5  24508267.674    24508278.385           7.250
         7.750
   7419726.240 6   5791271.466 6  21958003.229    21958009.666          18.500
        17.500
   5793762.789 5   4532403.232 5  23760642.854    23760650.096           9.750
         8.750
 99  3  2 17 36 30.0020000  0  7G27G13G 7G 2G18G19G31
 -11813250.591 6 -10090714.006 6  21138045.174    21138050.916          18.500
        21.750
 -11036858.142 6  -8600157.621 6  21318304.291    21318308.850          17.000
        23.500
  -2422027.939 5  -1887290.170 5  23695254.564    23695264.041           9.500
        10.250
  -6592860.696 7  -5137291.763 6  22077578.752    22077585.330          20.500
        20.500
  26844367.667 4  20933401.325 5  24522937.877    24522948.705           7.000
         7.750
   7462466.398 6   5824575.460 6  21966136.369    21966142.842          18.500
        17.500
   5858109.662 5   4582543.603 5  23772887.080    23772895.514           9.500
         8.750
 99  3  2 17 36 45.0020000  0  7G27G13G 7G 2G18G19G31
 -11810329.795 6 -10088438.063 6  21138600.947    21138606.826          18.750
        21.750
 -11004594.437 6  -8575017.100 6  21324443.846    21324448.506          16.750
        23.250
  -2452007.836 5  -1910651.059 5  23689549.486    23689559.068           9.000
        10.000
  -6585722.385 7  -5131729.441 6  22078937.057    22078943.682          20.500
        20.000
  26921481.298 4  20993489.726 5  24537613.010    24537623.436           7.250
         8.000
   7505287.246 6   5857942.325 6  21974284.947    21974291.381          18.500
        17.250
   5922555.842 5   4632761.364 5  23785151.361    23785159.123           9.500
         8.750
 99  3  2 17 37  0.0020000  0  7G27G13G 7G 2G18G19G31
 -11807338.167 6 -10086106.932 6  21139170.393    21139176.154          18.500
        21.250
 -10972176.074 6  -8549756.058 6  21330612.994    21330617.584          17.000
        23.000
  -2481938.657 5  -1933973.745 5  23683853.588    23683863.275           9.250
        10.250
  -6578515.027 7  -5126113.305 6  22080308.596    22080315.268          20.500
        19.750
  26998614.814 4  21053593.609 5  24552290.697    24552300.646           6.750
         7.250
   7548189.571 6   5891372.679 6  21982449.025    21982455.537          18.750
        17.500
   5987105.615 5   4683059.835 5  23797434.455    23797442.799           9.250
         8.250
 99  3  2 17 37 15.0020000  0  7G27G13G 7G 2G18G19G31
 -11804273.986 6 -10083719.260 6  21139753.564    21139759.217          18.750
        21.500
 -10939599.750 6  -8524371.934 6  21336811.986    21336816.611          16.750
        22.750
  -2511813.987 5  -1957253.191 5  23678168.432    23678178.303           9.500
        10.750
  -6571239.876 7  -5120444.349 6  22081692.986    22081699.717          20.500
        20.000
  27075774.029 4  21113717.523 5  24566973.869    24566984.697           7.250
         8.000
   7591177.802 6   5924869.972 6  21990629.502    21990635.861          18.750
        17.000
   6051765.954 5   4733444.465 5  23809739.166    23809746.811           9.750
         8.250
 99  3  2 17 37 30.0020000  0  7G27G13G 7G 2G18G19G31
 -11801140.707 6 -10081277.743 6  21140349.869    21140355.490          19.250
        21.250
 -10906873.187 6  -8498870.740 6  21343039.682    21343044.303          16.750
        23.000
  -2541638.680 5  -1980493.157 5  23672493.111    23672502.725           9.500
        10.750
  -6563903.650 7  -5114727.807 6  22083089.064    22083095.736          20.500
        20.000
  27152955.616 4  21173858.867 5  24581660.135    24581672.842           7.000
         8.000
   7634248.843 6   5958431.800 6  21998825.799    21998832.225          18.750
        17.000
   6116531.583 5   4783911.152 5  23822064.057    23822071.779           9.750
         8.250
 99  3  2 17 37 45.0020000  0  7G27G13G 7G 2G18G19G31
 -11797933.892 6 -10078778.935 6  21140960.119    21140965.795          19.000
        21.500
 -10873992.620 6  -8473249.542 6  21349296.611    21349301.354          16.750
        23.250
  -2571408.028 5  -2003690.003 5  23666827.979    23666837.686           9.750
        10.250
  -6556506.572 7  -5108963.844 6  22084496.775    22084503.436          20.750
        20.000
  27230160.387 4  21234018.296 5  24596352.275    24596362.189           6.250
         6.250
   7677407.540 6   5992061.920 6  22007038.541    22007044.939          18.250
        17.000
   6181402.213 5   4834459.630 5  23834408.010    23834416.197           9.500
         8.250
 99  3  2 17 38  0.0020000  0  7G27G13G 7G 2G18G19G31
 -11794657.755 6 -10076226.099 6  21141583.479    21141589.166          18.750
        21.750
 -10840961.320 6  -8447510.891 6  21355582.260    21355587.041          16.750
        23.750
  -2601122.174 5  -2026843.820 5  23661173.643    23661183.416           9.750
        11.250
  -6549053.281 7  -5103156.083 6  22085914.807    22085921.553          20.750
        20.250
  27307385.979 5  21294193.894 5  24611048.385    24611058.623           7.500
         7.500
   7720651.375 6   6025758.387 6  22015267.650    22015274.240          18.500
        17.750
   6246375.621 5   4885088.242 5  23846772.650    23846780.256           9.750
         8.500
 99  3  2 17 38 15.0020000  0  7G27G13G 7G 2G18G19G31
 -11791314.808 6 -10073621.212 6  21142219.525    21142225.303          18.750
        21.500
 -10807778.066 6  -8421653.832 6  21361896.799    21361901.611          16.750
        23.500
  -2630783.137 5  -2049956.208 5  23655529.557    23655538.646          10.000
        11.000
  -6541545.551 7  -5097305.899 6  22087343.768    22087350.256          21.000
        20.000
  27384634.997 5  21354387.791 5  24625749.307    24625759.795           7.500
         7.500
   7763980.960 6   6059521.677 6  22023512.979    22023519.471          18.500
        18.000
   6311452.553 5   4935797.487 5  23859156.174    23859163.666           9.750
         8.250
 99  3  2 17 38 30.0020000  0  7G27G13G 7G 2G18G19G31
 -11787905.230 6 -10070964.401 6  21142868.455    21142874.170          18.750
        21.500
 -10774443.346 6  -8395678.750 6  21368240.275    21368245.064          16.750
        24.000
  -2660394.095 5  -2073029.629 5  23649894.322    23649904.271           9.750
        11.250
  -6533987.749 7  -5091416.692 6  22088782.010    22088788.510          21.000
        20.250
  27461908.434 5  21414600.687 5  24640453.471    24640464.182           7.500
         7.250
   7807400.441 6   6093355.011 6  22031775.400    22031782.080          18.500
        18.000
   6376632.763 5   4986587.201 5  23871559.088    23871567.510           9.500
         8.250
 99  3  2 17 38 45.0020000  0  7G27G13G 7G 2G18G19G31
 -11784419.627 6 -10068248.357 6  21143531.854    21143537.432          18.750
        21.500
 -10740956.531 6  -8369585.152 6  21374612.697    21374617.451          16.750
        23.500
  -2689949.669 5  -2096059.895 5  23644270.064    23644279.568          10.000
        10.750
  -6526381.608 7  -5085489.827 6  22090229.307    22090235.713          20.750
        20.000
  27539208.914 4  21474834.685 5  24655163.205    24655173.908           7.250
         7.500
   7850911.843 6   6127259.970 6  22040055.385    22040061.947          18.250
        17.250
   6441914.474 5   5037456.024 5  23883982.455    23883989.998           9.500
         8.500
 99  3  2 17 39  0.0020000  0  7G27G13G 7G 2G18G19G31
 -11780855.563 6 -10065471.167 6  21144209.893    21144215.518          18.750
        21.250
 -10707318.308 6  -8343373.575 6  21381013.799    21381018.611          16.750
        23.250
  -2719450.384 5  -2119047.408 5  23638656.221    23638665.830           9.750
        11.250
  -6518731.717 7  -5079528.871 6  22091685.143    22091691.658          21.250
        19.750
  27616536.011 4  21535089.412 5  24669878.182    24669888.662           7.250
         7.500
   7894509.085 6   6161231.812 6  22048351.635    22048358.271          18.000
        17.000
   6507290.815 5   5088398.582 5  23896422.916    23896431.104           9.500
         8.250
 99  3  2 17 39 15.0020000  0  7G27G13G 7G 2G18G19G31
 -11777206.257 6 -10062627.554 6  21144904.525    21144910.170          18.750
        21.250
 -10673523.597 6  -8317040.059 6  21387444.744    21387449.564          16.750
        23.500
  -2748890.804 5  -2141987.941 5  23633053.666    23633063.275          10.000
        11.500
  -6511030.245 7  -5073527.719 6  22093150.518    22093156.971          21.000
        20.000
  27693896.311 4  21595370.026 5  24684599.307    24684609.896           7.250
         7.250
   7938194.283 6   6195272.200 6  22056664.682    22056671.229          18.000
        17.000
   6572762.972 5   5139415.795 5  23908881.760    23908889.939           9.500
         8.500
 99  3  2 17 39 30.0020000  0  7G27G13G 7G 2G18G19G31
 -11773477.147 6 -10059721.756 6  21145614.041    21145619.764          18.750
        21.250
 -10639581.699 6  -8290591.851 6  21393903.635    21393908.537          16.500
        23.500
  -2778280.923 5  -2164889.269 5  23627461.041    23627470.545          10.000
        11.750
  -6503277.332 7  -5067486.475 6  22094625.971    22094632.459          21.250
        19.750
  27771282.700 4  21655670.929 5  24699325.557    24699336.885           7.250
         7.750
   7981962.771 6   6229377.484 6  22064993.479    22065000.189          18.000
        17.000
   6638320.163 5   5190499.280 5  23921357.072    23921364.936           9.250
         8.000
 99  3  2 17 39 45.0020000  0  7G27G13G 7G 2G18G19G31
 -11769659.385 6 -10056746.882 6  21146340.471    21146346.174          18.750
        21.250
 -10605485.638 6  -8264023.517 6  21400391.955    21400396.834          16.750
        23.750
  -2807616.306 5  -2187747.950 5  23621878.877    23621888.260          10.500
        11.500
  -6495462.886 7  -5061397.295 6  22096113.010    22096119.510          21.250
        19.750
  27848697.899 5  21715994.304 5  24714057.893    24714068.510           7.500
         7.500
   8025820.906 6   6263552.626 6  22073339.393    22073345.971          17.750
        16.750
   6703966.566 5   5241652.272 5  23933849.111    23933857.393           9.500
         8.500
 99  3  2 17 40  0.0020000  0  7G27G13G 7G 2G18G19G31
 -11765750.935 6 -10053701.333 6  21147084.268    21147089.928          18.750
        21.250
 -10571234.948 6  -8237334.697 6  21406909.549    21406914.518          16.500
        23.750
  -2836894.637 5  -2210562.177 5  23616307.268    23616316.877          10.500
        11.750
  -6487583.571 7  -5055257.563 6  22097612.338    22097618.979          21.250
        20.000
  27926142.998 4  21776340.963 5  24728794.893    24728805.100           7.000
         7.250
   8069769.114 6   6297797.955 6  22081702.510    22081709.271          17.750
        17.000
   6769703.276 5   5292875.648 5  23946358.838    23946366.557           9.500
         8.250
 99  3  2 17 40 15.0020000  0  7G27G13G 7G 2G18G19G31
 -11761755.550 6 -10050588.056 6  21147844.674    21147850.287          18.750
        21.000
 -10536838.942 6  -8210532.637 6  21413455.104    21413459.920          16.750
        23.750
  -2866124.003 5  -2233338.251 5  23610745.033    23610754.424          10.500
        11.750
  -6479643.568 7  -5049070.541 6  22099123.377    22099129.818          21.250
        20.000
  28003613.142 4  21836707.173 5  24743536.994    24743548.971           7.250
         7.750
   8113801.476 6   6332108.857 6  22090081.580    22090088.268          17.250
        16.500
   6835524.282 5   5344164.687 5  23958883.486    23958892.189           9.250
         8.500
 99  3  2 17 40 30.0020000  0  7G27G13G 7G 2G18G19G31
 -11757674.756 6 -10047408.220 6  21148621.213    21148626.873          18.750
        20.500
 -10502303.696 6  -8183622.083 6  21420026.955    21420031.791          16.750
        23.750
  -2895307.441 5  -2256078.532 5  23605191.650    23605201.232          10.500
        11.750
  -6471644.173 7  -5042837.249 6  22100645.635    22100652.150          21.500
        19.750
  28081105.869 4  21897090.926 5  24758283.283    24758294.240           7.000
         7.000
   8157917.123 6   6366484.646 6  22098476.518    22098483.268          17.250
        16.750
   6901427.447 5   5395517.755 5  23971424.963    23971432.814           9.000
         8.000
 99  3  2 17 40 45.0020000  0  7G27G13G 7G 2G18G19G31
 -11753494.639 6 -10044150.989 6  21149416.424    21149422.240          18.500
        21.500
 -10467623.744 6  -8156598.770 6  21426626.299    21426631.166          16.750
        23.750
  -2924433.579 5  -2278774.171 5  23599648.846    23599658.217          10.750
        11.500
  -6463575.480 7  -5036549.954 6  22102181.025    22102187.510          21.500
        21.000
  28158628.737 3  21957498.236 5  24773036.619    24773046.654           6.000
         6.000
   8202122.378 6   6400930.268 6  22106888.494    22106895.268          17.000
        17.250
   6967420.067 5   5446940.534 5  23983982.666    23983991.010           9.500
         8.750
 99  3  2 17 41  0.0020000  0  7G27G13G 7G 2G18G19G31
 -11749215.235 6 -10040816.389 6  21150230.885    21150236.697          18.250
        21.250
 -10432800.440 6  -8129463.754 6  21433252.979    21433257.818          16.750
        23.500
  -2953502.342 5  -2301425.086 5  23594117.057    23594126.639          10.250
        11.500
  -6455436.637 7  -5030207.992 6  22103729.619    22103736.232          21.250
        20.500
  28236180.342 4  22017927.863 5  24787793.166    24787804.143           6.250
         6.750
   8246412.078 6   6435441.686 6  22115316.518    22115323.416          17.000
        17.500
   7033502.358 5   5498433.169 5  23996558.010    23996566.029           9.500
         8.500
 99  3  2 17 41 15.0020000  0  7G27G13G 7G 2G18G19G31
 -11744841.140 6 -10037408.011 6  21151063.229    21151068.955          18.750
        20.500
 -10397834.308 6  -8102217.436 6  21439906.697    21439911.744          16.500
        24.250
  -2982515.335 5  -2324032.559 6  23588596.424    23588605.607          11.000
        12.250
  -6447225.858 7  -5023809.969 6  22105292.252    22105298.850          21.750
        20.500
  28313758.840 4  22078378.465 5  24802556.275    24802567.623           6.750
         6.750
   8290788.817 6   6470020.930 6  22123760.971    22123767.842          16.750
        16.500
   7099676.053 5   5549997.057 5  24009150.283    24009158.479           9.250
         8.000
 99  3  2 17 41 30.0020000  0  7G27G13G 7G 2G18G19G31
 -11740385.857 6 -10033936.356 6  21151910.908    21151916.604          18.500
        20.500
 -10362737.684 6  -8074869.443 6  21446585.361    21446590.467          16.500
        24.500
  -3011483.000 5  -2346604.700 6  23583084.057    23583093.326          11.250
        12.250
  -6438954.137 7  -5017364.472 6  22106866.143    22106872.756          22.000
        20.500
  28391352.659 4  22138841.032 5  24817321.869    24817333.291           7.250
         6.500
   8335247.032 6   6504663.669 6  22132220.963    22132228.080          16.750
        16.500
   7165934.712 5   5601627.131 5  24021759.119    24021767.334           9.250
         7.750
 99  3  2 17 41 45.0020000  0  7G27G13G 7G 2G18G19G31
 -11735837.911 6 -10030392.506 6  21152776.447    21152782.143          18.250
        20.250
 -10327497.284 6  -8047409.416 6  21453291.424    21453296.428          16.750
        24.250
  -3040389.356 5  -2369129.077 6  23577583.268    23577592.846          11.250
        12.250
  -6430614.762 7  -5010866.257 6  22108453.111    22108459.670          21.750
        20.500
  28468974.700 4  22199325.562 5  24832093.877    24832103.678           7.250
         6.500
   8379799.456 6   6539379.803 6  22140699.088    22140706.123          16.250
        16.250
   7232291.808 5   5653333.905 5  24034386.471    24034394.182           9.250
         7.750
 99  3  2 17 42  0.0020000  0  7G27G13G 7G 2G18G19G31
 -11731196.446 6 -10026775.783 6  21153659.846    21153665.385          18.750
        20.250
 -10292109.267 6  -8019834.355 6  21460025.564    21460030.631          16.500
        23.500
  -3069230.963 5  -2391602.981 5  23572094.619    23572104.127          10.750
        11.750
  -6422212.403 7  -5004318.964 6  22110051.916    22110058.561          21.500
        20.000
  28546626.717 4  22259833.448 5  24846869.869    24846882.205           6.500
         7.250
   8424444.938 6   6574168.450 6  22149194.947    22149202.033          16.250
        16.250
   7298750.385 5   5705119.762 5  24047032.807    24047041.627           9.250
         8.000
 99  3  2 17 42 15.0020000  0  7G27G13G 7G 2G18G19G31
 -11726469.038 6 -10023092.094 6  21154559.330    21154565.072          18.500
        20.500
 -10256578.293 6  -7992147.912 6  21466786.869    21466791.904          16.500
        23.500
  -3098009.583 5  -2414027.830 5  23566618.541    23566627.510          10.750
        11.750
  -6413753.701 7  -4997727.782 6  22111661.588    22111668.275          21.250
        20.000
  28624306.586 4  22320363.050 5  24861652.080    24861663.096           7.250
         6.500
   8469179.272 6   6609026.334 6  22157707.471    22157714.490          16.000
        16.000
   7365306.129 5   5756981.333 5  24059698.385    24059706.381           9.250
         8.000
 99  3  2 17 42 30.0020000  0  7G27G13G 7G 2G18G19G31
 -11721664.633 6 -10019348.409 6  21155473.432    21155479.240          18.500
        20.500
 -10220908.705 6  -7964353.450 6  21473574.564    21473579.623          16.500
        23.250
  -3126731.044 5  -2436408.119 6  23561152.596    23561162.189          11.000
        12.250
  -6405247.274 7  -4991099.384 6  22113280.393    22113287.076          21.750
        19.750
  28702006.101 4  22380907.967 5  24876438.010    24876449.787           6.250
         6.250
   8513996.651 6   6643948.933 6  22166236.018    22166243.049          16.250
        16.500
   7431953.263 5   5808914.130 5  24072380.822    24072389.553           8.750
         8.250
 99  3  2 17 42 45.0020000  0  7G27G13G 7G 2G18G19G31
 -11716779.300 6 -10015541.653 6  21156403.252    21156409.029          18.500
        20.500
 -10185093.125 6  -7936445.224 6  21480390.080    21480395.084          16.750
        23.000
  -3155390.055 5  -2458739.768 6  23555699.096    23555708.369          11.250
        12.250
  -6396689.298 7  -4984430.834 6  22114908.744    22114915.537          21.500
        20.000
  28779727.391 4  22441469.824 5  24891228.314    24891239.443           6.500
         6.250
   8558899.814 6   6678938.373 6  22174780.900    22174787.756          16.250
        16.250
   7498696.218 5   5860921.584 5  24085081.400    24085090.451           8.750
         8.250
 99  3  2 17 43  0.0020000  0  7G27G13G 7G 2G18G19G31
 -11711810.959 6 -10011670.226 6  21157348.650    21157354.416          18.500
        20.750
 -10149124.028 6  -7908417.373 6  21487234.752    21487239.799          16.500
        23.500
  -3183987.668 5  -2481023.572 6  23550257.150    23550266.264          11.000
        12.500
  -6388081.132 7  -4977723.163 6  22116546.979    22116553.607          21.250
        20.000
  28857468.284 3  22502046.988 5  24906021.189    24906033.068           6.000
         6.000
   8603887.457 6   6713993.641 6  22183341.713    22183348.670          16.250
        16.000
   7565533.013 5   5913002.141 5  24097800.197    24097808.920           8.500
         8.000
 99  3  2 17 43 15.0020000  0  7G27G13G 7G 2G18G19G31
 -11706767.827 6 -10007740.510 6  21158308.283    21158314.092          18.250
        20.250
 -10113000.365 6  -7880269.089 6  21494108.916    21494113.916          16.500
        23.000
  -3212526.739 5  -2503261.723 6  23544826.275    23544835.490          11.500
        12.500
  -6379425.402 7  -4970978.434 6  22118194.057    22118200.889          21.500
        20.500
  28935225.687 4  22562637.001 5  24920818.330    24920830.311           6.500
         6.250
   8648959.802 6   6749114.910 6  22191918.775    22191925.686          16.250
        16.250
   7632463.538 5   5965155.767 5  24110536.775    24110545.357           8.750
         8.000
 99  3  2 17 43 30.0020000  0  7G27G13G 7G 2G18G19G31
 -11701650.785 6 -10003753.206 6  21159281.986    21159287.799          18.000
        20.500
 -10076721.839 6  -7852000.137 6  21501012.518    21501017.627          16.500
        23.750
  -3241005.680 5  -2525453.042 6  23539406.635    23539416.119          10.750
        12.750
  -6370721.636 7  -4964196.274 6  22119850.299    22119857.072          21.500
        20.000
  29012998.986 4  22623239.392 5  24935618.627    24935628.885           7.250
         6.000
   8694119.317 6   6784304.106 6  22200512.549    22200519.533          16.250
        16.250
   7699487.282 5   6017382.021 5  24123291.150    24123299.553           9.000
         7.750
